Wetterdaten: Donnerstag, 31.01.2013
Datum Zeit Temp. Aussen +5cm Feuchte Auss BlattFeu 1 Luftdruck Regen Sonnenschein UV Solar Windben
31.01.2013 00:00 8,4 C 6,8 C 81 % 0 lf 1013,7 hPa 0,0 l/m 0 min 0,0 UV-I 0 W/m 10,3 km/h (2 Bft)
31.01.2013 00:02 8,5 C 6,8 C 81 % 0 lf 1013,7 hPa 0,0 l/m 0 min 0,0 UV-I 0 W/m 23,2 km/h (4 Bft)
31.01.2013 00:04 8,4 C 6,8 C 81 % 0 lf 1013,8 hPa 0,0 l/m 0 min 0,0 UV-I 0 W/m 33,5 km/h (5 Bft)
31.01.2013 00:06 8,5 C 7,3 C 81 % 0 lf 1013,7 hPa 0,0 l/m 0 min 0,0 UV-I 0 W/m 23,2 km/h (4 Bft)
31.01.2013 00:08 8,5 C 6,8 C 81 % 0 lf 1013,8 hPa 0,0 l/m 0 min 0,0 UV-I 0 W/m 25,7 km/h (4 Bft)
31.01.2013 00:10 8,5 C 7,3 C 81 % 0 lf 1013,7 hPa 0,0 l/m 0 min 0,0 UV-I 0 W/m 20,6 km/h (4 Bft)
31.01.2013 00:12 8,5 C 6,8 C 81 % 0 lf 1013,9 hPa 0,0 l/m 0 min 0,0 UV-I 0 W/m 33,5 km/h (5 Bft)
31.01.2013 00:14 8,5 C 6,8 C 81 % 0 lf 1013,9 hPa 0,0 l/m 0 min 0,0 UV-I 0 W/m 23,2 km/h (4 Bft)
31.01.2013 00:16 8,5 C 6,8 C 81 % 0 lf 1014,0 hPa 0,0 l/m 0 min 0,0 UV-I 0 W/m 25,7 km/h (4 Bft)
31.01.2013 00:18 8,4 C 6,8 C 81 % 0 lf 1014,1 hPa 0,0 l/m 0 min 0,0 UV-I 0 W/m 7,7 km/h (2 Bft)
31.01.2013 00:20 8,4 C 6,8 C 81 % 0 lf 1014,1 hPa 0,0 l/m 0 min 0,0 UV-I 0 W/m 20,6 km/h (4 Bft)
31.01.2013 00:22 8,4 C 6,8 C 81 % 0 lf 1014,1 hPa 0,0 l/m 0 min 0,0 UV-I 0 W/m 25,7 km/h (4 Bft)
31.01.2013 00:24 8,4 C 6,8 C 81 % 0 lf 1014,1 hPa 0,0 l/m 0 min 0,0 UV-I 0 W/m 23,2 km/h (4 Bft)
31.01.2013 00:26 8,4 C 6,8 C 81 % 0 lf 1014,2 hPa 0,0 l/m 0 min 0,0 UV-I 0 W/m 10,3 km/h (2 Bft)
31.01.2013 00:28 8,4 C 6,8 C 81 % 0 lf 1014,3 hPa 0,0 l/m 0 min 0,0 UV-I 0 W/m 15,4 km/h (3 Bft)
31.01.2013 00:30 8,4 C 6,8 C 81 % 0 lf 1014,2 hPa 0,0 l/m 0 min 0,0 UV-I 0 W/m 18,0 km/h (3 Bft)
31.01.2013 00:32 8,4 C 6,8 C 81 % 0 lf 1014,3 hPa 0,0 l/m 0 min 0,0 UV-I 0 W/m 20,6 km/h (4 Bft)
31.01.2013 00:34 8,4 C 6,8 C 80 % 0 lf 1014,3 hPa 0,0 l/m 0 min 0,0 UV-I 0 W/m 25,7 km/h (4 Bft)
31.01.2013 00:36 8,4 C 6,8 C 81 % 0 lf 1014,4 hPa 0,0 l/m 0 min 0,0 UV-I 0 W/m 25,7 km/h (4 Bft)
31.01.2013 00:38 8,4 C 6,8 C 81 % 0 lf 1014,5 hPa 0,0 l/m 0 min 0,0 UV-I 0 W/m 12,9 km/h (3 Bft)
31.01.2013 00:40 8,4 C 6,8 C 81 % 0 lf 1014,4 hPa 0,0 l/m 0 min 0,0 UV-I 0 W/m 20,6 km/h (4 Bft)
31.01.2013 00:42 8,4 C 6,8 C 81 % 0 lf 1014,5 hPa 0,0 l/m 0 min 0,0 UV-I 0 W/m 18,0 km/h (3 Bft)
31.01.2013 00:44 8,4 C 6,8 C 81 % 0 lf 1014,6 hPa 0,0 l/m 0 min 0,0 UV-I 0 W/m 18,0 km/h (3 Bft)
31.01.2013 00:46 8,4 C 6,8 C 81 % 0 lf 1014,7 hPa 0,0 l/m 0 min 0,0 UV-I 0 W/m 18,0 km/h (3 Bft)
31.01.2013 00:48 8,4 C 6,8 C 81 % 0 lf 1014,5 hPa 0,0 l/m 0 min 0,0 UV-I 0 W/m 30,9 km/h (5 Bft)
31.01.2013 00:50 8,4 C 6,8 C 81 % 0 lf 1014,6 hPa 0,0 l/m 0 min 0,0 UV-I 0 W/m 18,0 km/h (3 Bft)
31.01.2013 00:52 8,4 C 6,8 C 81 % 0 lf 1014,7 hPa 0,0 l/m 0 min 0,0 UV-I 0 W/m 15,4 km/h (3 Bft)
31.01.2013 00:54 8,4 C 6,8 C 81 % 0 lf 1014,7 hPa 0,0 l/m 0 min 0,0 UV-I 0 W/m 20,6 km/h (4 Bft)
31.01.2013 00:56 8,4 C 6,8 C 81 % 0 lf 1014,8 hPa 0,0 l/m 0 min 0,0 UV-I 0 W/m 20,6 km/h (4 Bft)
31.01.2013 00:58 8,4 C 6,8 C 81 % 0 lf 1014,8 hPa 0,0 l/m 0 min 0,0 UV-I 0 W/m 20,6 km/h (4 Bft)
31.01.2013 01:00 8,4 C 6,8 C 81 % 0 lf 1014,8 hPa 0,0 l/m 0 min 0,0 UV-I 0 W/m 25,7 km/h (4 Bft)
31.01.2013 01:02 8,4 C 6,8 C 81 % 0 lf 1014,8 hPa 0,0 l/m 0 min 0,0 UV-I 0 W/m 18,0 km/h (3 Bft)
31.01.2013 01:04 8,4 C 6,8 C 81 % 0 lf 1014,8 hPa 0,0 l/m 0 min 0,0 UV-I 0 W/m 18,0 km/h (3 Bft)
31.01.2013 01:06 8,4 C 6,8 C 81 % 0 lf 1014,8 hPa 0,0 l/m 0 min 0,0 UV-I 0 W/m 25,7 km/h (4 Bft)
31.01.2013 01:08 8,4 C 6,8 C 81 % 0 lf 1015,0 hPa 0,0 l/m 0 min 0,0 UV-I 0 W/m 25,7 km/h (4 Bft)
31.01.2013 01:10 8,4 C 6,8 C 81 % 0 lf 1015,0 hPa 0,0 l/m 0 min 0,0 UV-I 0 W/m 20,6 km/h (4 Bft)
31.01.2013 01:12 8,4 C 6,8 C 81 % 0 lf 1015,0 hPa 0,0 l/m 0 min 0,0 UV-I 0 W/m 38,6 km/h (5 Bft)
31.01.2013 01:14 8,4 C 7,3 C 81 % 0 lf 1015,0 hPa 0,0 l/m 0 min 0,0 UV-I 0 W/m 23,2 km/h (4 Bft)
31.01.2013 01:16 8,4 C 6,8 C 81 % 0 lf 1015,0 hPa 0,0 l/m 0 min 0,0 UV-I 0 W/m 18,0 km/h (3 Bft)
31.01.2013 01:18 8,4 C 6,8 C 81 % 0 lf 1015,1 hPa 0,0 l/m 0 min 0,0 UV-I 0 W/m 20,6 km/h (4 Bft)
31.01.2013 01:20 8,4 C 6,8 C 81 % 0 lf 1015,0 hPa 0,0 l/m 0 min 0,0 UV-I 0 W/m 25,7 km/h (4 Bft)
31.01.2013 01:22 8,4 C 6,8 C 81 % 0 lf 1015,0 hPa 0,0 l/m 0 min 0,0 UV-I 0 W/m 20,6 km/h (4 Bft)
31.01.2013 01:24 8,4 C 6,8 C 81 % 0 lf 1015,0 hPa 0,0 l/m 0 min 0,0 UV-I 0 W/m 25,7 km/h (4 Bft)
31.01.2013 01:26 8,4 C 6,8 C 81 % 0 lf 1014,9 hPa 0,0 l/m 0 min 0,0 UV-I 0 W/m 33,5 km/h (5 Bft)
31.01.2013 01:28 8,4 C 6,8 C 81 % 0 lf 1015,0 hPa 0,0 l/m 0 min 0,0 UV-I 0 W/m 18,0 km/h (3 Bft)
31.01.2013 01:30 8,4 C 6,8 C 81 % 0 lf 1015,1 hPa 0,0 l/m 0 min 0,0 UV-I 0 W/m 23,2 km/h (4 Bft)
31.01.2013 01:32 8,4 C 6,8 C 81 % 0 lf 1015,1 hPa 0,0 l/m 0 min 0,0 UV-I 0 W/m 23,2 km/h (4 Bft)
31.01.2013 01:34 8,3 C 6,8 C 81 % 0 lf 1015,0 hPa 0,0 l/m 0 min 0,0 UV-I 0 W/m 20,6 km/h (4 Bft)
31.01.2013 01:36 8,3 C 6,8 C 81 % 0 lf 1015,0 hPa 0,0 l/m 0 min 0,0 UV-I 0 W/m 28,3 km/h (4 Bft)
31.01.2013 01:38 8,3 C 6,8 C 81 % 0 lf 1015,0 hPa 0,0 l/m 0 min 0,0 UV-I 0 W/m 28,3 km/h (4 Bft)
31.01.2013 01:40 8,3 C 6,8 C 81 % 0 lf 1015,0 hPa 0,0 l/m 0 min 0,0 UV-I 0 W/m 20,6 km/h (4 Bft)
31.01.2013 01:42 8,3 C 6,8 C 81 % 0 lf 1015,1 hPa 0,0 l/m 0 min 0,0 UV-I 0 W/m 33,5 km/h (5 Bft)
31.01.2013 01:44 8,3 C 6,8 C 81 % 0 lf 1015,2 hPa 0,0 l/m 0 min 0,0 UV-I 0 W/m 12,9 km/h (3 Bft)
31.01.2013 01:46 8,3 C 6,8 C 81 % 0 lf 1015,1 hPa 0,0 l/m 0 min 0,0 UV-I 0 W/m 15,4 km/h (3 Bft)
31.01.2013 01:48 8,3 C 6,8 C 81 % 0 lf 1015,3 hPa 0,0 l/m 0 min 0,0 UV-I 0 W/m 18,0 km/h (3 Bft)
31.01.2013 01:50 8,3 C 6,8 C 81 % 0 lf 1015,3 hPa 0,0 l/m 0 min 0,0 UV-I 0 W/m 25,7 km/h (4 Bft)
31.01.2013 01:52 8,3 C 6,8 C 81 % 0 lf 1015,3 hPa 0,0 l/m 0 min 0,0 UV-I 0 W/m 25,7 km/h (4 Bft)
31.01.2013 01:54 8,3 C 6,8 C 81 % 0 lf 1015,2 hPa 0,0 l/m 0 min 0,0 UV-I 0 W/m 30,9 km/h (5 Bft)
31.01.2013 01:56 8,3 C 6,8 C 81 % 0 lf 1015,2 hPa 0,0 l/m 0 min 0,0 UV-I 0 W/m 30,9 km/h (5 Bft)
31.01.2013 01:58 8,3 C 6,8 C 81 % 0 lf 1015,3 hPa 0,0 l/m 0 min 0,0 UV-I 0 W/m 20,6 km/h (4 Bft)
31.01.2013 02:00 8,3 C 6,8 C 80 % 0 lf 1015,3 hPa 0,0 l/m 0 min 0,0 UV-I 0 W/m 20,6 km/h (4 Bft)
31.01.2013 02:02 8,3 C 6,8 C 80 % 0 lf 1015,4 hPa 0,0 l/m 0 min 0,0 UV-I 0 W/m 23,2 km/h (4 Bft)
31.01.2013 02:04 8,2 C 6,8 C 80 % 0 lf 1015,3 hPa 0,0 l/m 0 min 0,0 UV-I 0 W/m 28,3 km/h (4 Bft)
31.01.2013 02:06 8,2 C 6,8 C 80 % 0 lf 1015,3 hPa 0,0 l/m 0 min 0,0 UV-I 0 W/m 33,5 km/h (5 Bft)
31.01.2013 02:08 8,2 C 6,8 C 80 % 0 lf 1015,4 hPa 0,0 l/m 0 min 0,0 UV-I 0 W/m 33,5 km/h (5 Bft)
31.01.2013 02:10 8,2 C 6,8 C 80 % 0 lf 1015,3 hPa 0,0 l/m 0 min 0,0 UV-I 0 W/m 25,7 km/h (4 Bft)
31.01.2013 02:12 8,2 C 6,8 C 80 % 0 lf 1015,3 hPa 0,0 l/m 0 min 0,0 UV-I 0 W/m 20,6 km/h (4 Bft)
31.01.2013 02:14 8,2 C 6,2 C 80 % 0 lf 1015,3 hPa 0,0 l/m 0 min 0,0 UV-I 0 W/m 18,0 km/h (3 Bft)
31.01.2013 02:16 8,1 C 6,2 C 80 % 0 lf 1015,4 hPa 0,0 l/m 0 min 0,0 UV-I 0 W/m 23,2 km/h (4 Bft)
31.01.2013 02:18 8,1 C 6,2 C 80 % 0 lf 1015,4 hPa 0,0 l/m 0 min 0,0 UV-I 0 W/m 33,5 km/h (5 Bft)
31.01.2013 02:20 8,1 C 6,2 C 80 % 0 lf 1015,4 hPa 0,0 l/m 0 min 0,0 UV-I 0 W/m 20,6 km/h (4 Bft)
31.01.2013 02:22 8,1 C 6,2 C 80 % 0 lf 1015,4 hPa 0,0 l/m 0 min 0,0 UV-I 0 W/m 18,0 km/h (3 Bft)
31.01.2013 02:24 8,0 C 6,2 C 80 % 0 lf 1015,4 hPa 0,0 l/m 0 min 0,0 UV-I 0 W/m 23,2 km/h (4 Bft)
31.01.2013 02:26 8,0 C 6,2 C 80 % 0 lf 1015,4 hPa 0,0 l/m 0 min 0,0 UV-I 0 W/m 20,6 km/h (4 Bft)
31.01.2013 02:28 7,9 C 6,2 C 80 % 0 lf 1015,4 hPa 0,0 l/m 0 min 0,0 UV-I 0 W/m 18,0 km/h (3 Bft)
31.01.2013 02:30 7,9 C 6,2 C 80 % 0 lf 1015,4 hPa 0,0 l/m 0 min 0,0 UV-I 0 W/m 20,6 km/h (4 Bft)
31.01.2013 02:32 7,9 C 6,2 C 80 % 0 lf 1015,5 hPa 0,0 l/m 0 min 0,0 UV-I 0 W/m 25,7 km/h (4 Bft)
31.01.2013 02:34 7,9 C 6,2 C 80 % 0 lf 1015,5 hPa 0,0 l/m 0 min 0,0 UV-I 0 W/m 30,9 km/h (5 Bft)
31.01.2013 02:36 7,9 C 6,2 C 80 % 0 lf 1015,5 hPa 0,0 l/m 0 min 0,0 UV-I 0 W/m 28,3 km/h (4 Bft)
31.01.2013 02:38 7,9 C 6,2 C 80 % 0 lf 1015,5 hPa 0,0 l/m 0 min 0,0 UV-I 0 W/m 20,6 km/h (4 Bft)
31.01.2013 02:40 7,8 C 6,2 C 80 % 0 lf 1015,6 hPa 0,0 l/m 0 min 0,0 UV-I 0 W/m 18,0 km/h (3 Bft)
31.01.2013 02:42 7,8 C 6,2 C 80 % 0 lf 1015,7 hPa 0,0 l/m 0 min 0,0 UV-I 0 W/m 28,3 km/h (4 Bft)
31.01.2013 02:44 7,8 C 6,2 C 80 % 0 lf 1015,6 hPa 0,0 l/m 0 min 0,0 UV-I 0 W/m 23,2 km/h (4 Bft)
31.01.2013 02:46 7,8 C 6,2 C 80 % 0 lf 1015,6 hPa 0,0 l/m 0 min 0,0 UV-I 0 W/m 28,3 km/h (4 Bft)
31.01.2013 02:48 7,8 C 6,2 C 80 % 0 lf 1015,7 hPa 0,0 l/m 0 min 0,0 UV-I 0 W/m 15,4 km/h (3 Bft)
31.01.2013 02:50 7,8 C 6,2 C 80 % 0 lf 1015,8 hPa 0,0 l/m 0 min 0,0 UV-I 0 W/m 28,3 km/h (4 Bft)
31.01.2013 02:52 7,8 C 6,2 C 81 % 0 lf 1015,8 hPa 0,0 l/m 0 min 0,0 UV-I 0 W/m 23,2 km/h (4 Bft)
31.01.2013 02:54 7,7 C 6,2 C 81 % 0 lf 1015,8 hPa 0,0 l/m 0 min 0,0 UV-I 0 W/m 20,6 km/h (4 Bft)
31.01.2013 02:56 7,7 C 6,2 C 81 % 0 lf 1015,7 hPa 0,0 l/m 0 min 0,0 UV-I 0 W/m 25,7 km/h (4 Bft)
31.01.2013 02:58 7,7 C 6,2 C 81 % 0 lf 1015,7 hPa 0,0 l/m 0 min 0,0 UV-I 0 W/m 12,9 km/h (3 Bft)
31.01.2013 03:00 7,7 C 6,2 C 81 % 0 lf 1015,7 hPa 0,0 l/m 0 min 0,0 UV-I 0 W/m 20,6 km/h (4 Bft)
31.01.2013 03:02 7,7 C 6,2 C 81 % 0 lf 1015,6 hPa 0,0 l/m 0 min 0,0 UV-I 0 W/m 23,2 km/h (4 Bft)
31.01.2013 03:05 7,6 C 6,2 C 81 % 0 lf 1015,6 hPa 0,0 l/m 0 min 0,0 UV-I 0 W/m 15,4 km/h (3 Bft)
31.01.2013 03:07 7,6 C 6,2 C 81 % 0 lf 1015,6 hPa 0,0 l/m 0 min 0,0 UV-I 0 W/m 18,0 km/h (3 Bft)
31.01.2013 03:08 7,6 C 6,2 C 81 % 0 lf 1015,7 hPa 0,0 l/m 0 min 0,0 UV-I 0 W/m 28,3 km/h (4 Bft)
31.01.2013 03:10 7,6 C 6,2 C 81 % 0 lf 1015,6 hPa 0,0 l/m 0 min 0,0 UV-I 0 W/m 25,7 km/h (4 Bft)
31.01.2013 03:12 7,6 C 5,7 C 81 % 0 lf 1015,5 hPa 0,0 l/m 0 min 0,0 UV-I 0 W/m 18,0 km/h (3 Bft)
31.01.2013 03:14 7,5 C 5,7 C 81 % 0 lf 1015,5 hPa 0,0 l/m 0 min 0,0 UV-I 0 W/m 15,4 km/h (3 Bft)
31.01.2013 03:16 7,5 C 5,7 C 82 % 0 lf 1015,5 hPa 0,0 l/m 0 min 0,0 UV-I 0 W/m 20,6 km/h (4 Bft)
31.01.2013 03:18 7,4 C 5,7 C 82 % 0 lf 1015,5 hPa 0,0 l/m 0 min 0,0 UV-I 0 W/m 36,0 km/h (5 Bft)
31.01.2013 03:20 7,4 C 5,7 C 82 % 0 lf 1015,4 hPa 0,0 l/m 0 min 0,0 UV-I 0 W/m 12,9 km/h (3 Bft)
31.01.2013 03:22 7,4 C 5,7 C 82 % 0 lf 1015,5 hPa 0,0 l/m 0 min 0,0 UV-I 0 W/m 23,2 km/h (4 Bft)
31.01.2013 03:24 7,4 C 5,7 C 82 % 0 lf 1015,4 hPa 0,0 l/m 0 min 0,0 UV-I 0 W/m 36,0 km/h (5 Bft)
31.01.2013 03:26 7,4 C 5,7 C 82 % 0 lf 1015,4 hPa 0,0 l/m 0 min 0,0 UV-I 0 W/m 15,4 km/h (3 Bft)
31.01.2013 03:28 7,4 C 5,7 C 82 % 0 lf 1015,5 hPa 0,0 l/m 0 min 0,0 UV-I 0 W/m 20,6 km/h (4 Bft)
31.01.2013 03:30 7,4 C 5,7 C 82 % 0 lf 1015,6 hPa 0,0 l/m 0 min 0,0 UV-I 0 W/m 20,6 km/h (4 Bft)
31.01.2013 03:32 7,3 C 5,7 C 82 % 0 lf 1015,5 hPa 0,0 l/m 0 min 0,0 UV-I 0 W/m 23,2 km/h (4 Bft)
31.01.2013 03:34 7,3 C 5,7 C 82 % 0 lf 1015,6 hPa 0,0 l/m 0 min 0,0 UV-I 0 W/m 18,0 km/h (3 Bft)
31.01.2013 03:36 7,3 C 5,7 C 82 % 0 lf 1015,5 hPa 0,0 l/m 0 min 0,0 UV-I 0 W/m 20,6 km/h (4 Bft)
31.01.2013 03:38 7,3 C 5,7 C 83 % 0 lf 1015,7 hPa 0,0 l/m 0 min 0,0 UV-I 0 W/m 18,0 km/h (3 Bft)
31.01.2013 03:40 7,3 C 5,7 C 83 % 0 lf 1015,7 hPa 0,0 l/m 0 min 0,0 UV-I 0 W/m 23,2 km/h (4 Bft)
31.01.2013 03:42 7,3 C 5,7 C 83 % 0 lf 1015,5 hPa 0,0 l/m 0 min 0,0 UV-I 0 W/m 30,9 km/h (5 Bft)
31.01.2013 03:44 7,2 C 5,7 C 83 % 0 lf 1015,7 hPa 0,0 l/m 0 min 0,0 UV-I 0 W/m 38,6 km/h (5 Bft)
31.01.2013 03:46 7,2 C 5,7 C 83 % 0 lf 1015,4 hPa 0,0 l/m 0 min 0,0 UV-I 0 W/m 30,9 km/h (5 Bft)
31.01.2013 03:48 7,2 C 5,7 C 84 % 0 lf 1015,4 hPa 0,0 l/m 0 min 0,0 UV-I 0 W/m 18,0 km/h (3 Bft)
31.01.2013 03:50 7,2 C 5,7 C 84 % 0 lf 1015,5 hPa 0,0 l/m 0 min 0,0 UV-I 0 W/m 28,3 km/h (4 Bft)
31.01.2013 03:52 7,2 C 5,7 C 84 % 0 lf 1015,4 hPa 0,0 l/m 0 min 0,0 UV-I 0 W/m 15,4 km/h (3 Bft)
31.01.2013 03:54 7,2 C 5,7 C 84 % 0 lf 1015,3 hPa 0,0 l/m 0 min 0,0 UV-I 0 W/m 23,2 km/h (4 Bft)
31.01.2013 03:56 7,2 C 5,7 C 85 % 0 lf 1015,4 hPa 0,0 l/m 0 min 0,0 UV-I 0 W/m 25,7 km/h (4 Bft)
31.01.2013 03:58 7,2 C 5,7 C 85 % 0 lf 1015,8 hPa 0,0 l/m 0 min 0,0 UV-I 0 W/m 51,5 km/h (7 Bft)
31.01.2013 04:00 7,2 C 5,7 C 85 % 0 lf 1015,6 hPa 0,0 l/m 0 min 0,0 UV-I 0 W/m 30,9 km/h (5 Bft)
31.01.2013 04:02 7,2 C 5,7 C 85 % 0 lf 1015,7 hPa 0,0 l/m 0 min 0,0 UV-I 0 W/m 30,9 km/h (5 Bft)
31.01.2013 04:04 7,2 C 5,7 C 85 % 0 lf 1015,5 hPa 0,0 l/m 0 min 0,0 UV-I 0 W/m 20,6 km/h (4 Bft)
31.01.2013 04:06 7,2 C 5,7 C 85 % 0 lf 1015,5 hPa 0,0 l/m 0 min 0,0 UV-I 0 W/m 15,4 km/h (3 Bft)
31.01.2013 04:11 7,1 C 5,7 C 86 % 0 lf 1015,5 hPa 0,0 l/m 0 min 0,0 UV-I 0 W/m 23,2 km/h (4 Bft)
31.01.2013 04:12 7,1 C 5,7 C 86 % 0 lf 1015,5 hPa 0,0 l/m 0 min 0,0 UV-I 0 W/m 20,6 km/h (4 Bft)
31.01.2013 04:14 7,1 C 5,7 C 86 % 0 lf 1015,6 hPa 0,0 l/m 0 min 0,0 UV-I 0 W/m 25,7 km/h (4 Bft)
31.01.2013 04:16 7,1 C 5,7 C 86 % 0 lf 1015,6 hPa 0,0 l/m 0 min 0,0 UV-I 0 W/m 20,6 km/h (4 Bft)
31.01.2013 04:18 7,1 C 5,7 C 86 % 0 lf 1015,8 hPa 0,0 l/m 0 min 0,0 UV-I 0 W/m 23,2 km/h (4 Bft)
31.01.2013 04:20 7,1 C 5,7 C 86 % 0 lf 1015,6 hPa 0,0 l/m 0 min 0,0 UV-I 0 W/m 20,6 km/h (4 Bft)
31.01.2013 04:22 7,1 C 5,7 C 86 % 0 lf 1015,6 hPa 0,0 l/m 0 min 0,0 UV-I 0 W/m 18,0 km/h (3 Bft)
31.01.2013 04:24 7,1 C 5,7 C 86 % 0 lf 1015,5 hPa 0,0 l/m 0 min 0,0 UV-I 0 W/m 20,6 km/h (4 Bft)
31.01.2013 04:26 7,1 C 5,7 C 86 % 0 lf 1015,6 hPa 0,0 l/m 0 min 0,0 UV-I 0 W/m 12,9 km/h (3 Bft)
31.01.2013 04:28 7,1 C 5,7 C 86 % 0 lf 1015,6 hPa 0,0 l/m 0 min 0,0 UV-I 0 W/m 20,6 km/h (4 Bft)
31.01.2013 04:30 7,1 C 5,7 C 87 % 0 lf 1015,6 hPa 0,0 l/m 0 min 0,0 UV-I 0 W/m 28,3 km/h (4 Bft)
31.01.2013 04:32 7,1 C 5,7 C 87 % 0 lf 1015,6 hPa 0,0 l/m 0 min 0,0 UV-I 0 W/m 36,0 km/h (5 Bft)
31.01.2013 04:34 7,1 C 5,7 C 87 % 0 lf 1015,6 hPa 0,0 l/m 0 min 0,0 UV-I 0 W/m 23,2 km/h (4 Bft)
31.01.2013 04:36 7,1 C 5,7 C 87 % 0 lf 1015,6 hPa 0,0 l/m 0 min 0,0 UV-I 0 W/m 20,6 km/h (4 Bft)
31.01.2013 04:38 7,1 C 5,7 C 87 % 0 lf 1015,5 hPa 0,0 l/m 0 min 0,0 UV-I 0 W/m 18,0 km/h (3 Bft)
31.01.2013 04:40 7,1 C 5,7 C 87 % 0 lf 1015,5 hPa 0,0 l/m 0 min 0,0 UV-I 0 W/m 25,7 km/h (4 Bft)
31.01.2013 04:42 7,1 C 5,7 C 87 % 0 lf 1015,6 hPa 0,0 l/m 0 min 0,0 UV-I 0 W/m 25,7 km/h (4 Bft)
31.01.2013 04:44 7,1 C 5,7 C 87 % 0 lf 1015,6 hPa 0,0 l/m 0 min 0,0 UV-I 0 W/m 30,9 km/h (5 Bft)
31.01.2013 04:46 7,1 C 5,7 C 87 % 0 lf 1015,7 hPa 0,0 l/m 0 min 0,0 UV-I 0 W/m 20,6 km/h (4 Bft)
31.01.2013 04:48 7,1 C 5,7 C 87 % 0 lf 1015,7 hPa 0,0 l/m 0 min 0,0 UV-I 0 W/m 25,7 km/h (4 Bft)
31.01.2013 04:50 7,1 C 5,7 C 87 % 0 lf 1015,7 hPa 0,0 l/m 0 min 0,0 UV-I 0 W/m 28,3 km/h (4 Bft)
31.01.2013 04:52 7,1 C 5,7 C 87 % 0 lf 1015,6 hPa 0,0 l/m 0 min 0,0 UV-I 0 W/m 20,6 km/h (4 Bft)
31.01.2013 04:54 7,1 C 5,7 C 87 % 0 lf 1015,6 hPa 0,0 l/m 0 min 0,0 UV-I 0 W/m 25,7 km/h (4 Bft)
31.01.2013 04:56 7,1 C 5,7 C 87 % 0 lf 1015,7 hPa 0,0 l/m 0 min 0,0 UV-I 0 W/m 23,2 km/h (4 Bft)
31.01.2013 04:58 7,1 C 5,7 C 86 % 0 lf 1015,7 hPa 0,0 l/m 0 min 0,0 UV-I 0 W/m 25,7 km/h (4 Bft)
31.01.2013 05:00 7,1 C 5,7 C 86 % 0 lf 1015,7 hPa 0,0 l/m 0 min 0,0 UV-I 0 W/m 25,7 km/h (4 Bft)
31.01.2013 05:02 7,1 C 5,7 C 86 % 0 lf 1015,7 hPa 0,0 l/m 0 min 0,0 UV-I 0 W/m 28,3 km/h (4 Bft)
31.01.2013 05:04 7,1 C 5,7 C 86 % 0 lf 1015,8 hPa 0,0 l/m 0 min 0,0 UV-I 0 W/m 25,7 km/h (4 Bft)
31.01.2013 05:06 7,1 C 5,7 C 86 % 0 lf 1015,7 hPa 0,0 l/m 0 min 0,0 UV-I 0 W/m 18,0 km/h (3 Bft)
31.01.2013 05:08 7,1 C 5,7 C 86 % 0 lf 1015,8 hPa 0,0 l/m 0 min 0,0 UV-I 0 W/m 30,9 km/h (5 Bft)
31.01.2013 05:10 7,2 C 5,7 C 86 % 0 lf 1015,7 hPa 0,0 l/m 0 min 0,0 UV-I 0 W/m 30,9 km/h (5 Bft)
31.01.2013 05:12 7,2 C 5,7 C 86 % 0 lf 1015,7 hPa 0,0 l/m 0 min 0,0 UV-I 0 W/m 25,7 km/h (4 Bft)
31.01.2013 05:14 7,2 C 5,7 C 86 % 0 lf 1015,8 hPa 0,0 l/m 0 min 0,0 UV-I 0 W/m 25,7 km/h (4 Bft)
31.01.2013 05:16 7,2 C 5,7 C 86 % 0 lf 1015,8 hPa 0,0 l/m 0 min 0,0 UV-I 0 W/m 36,0 km/h (5 Bft)
31.01.2013 05:18 7,2 C 5,7 C 86 % 0 lf 1015,8 hPa 0,0 l/m 0 min 0,0 UV-I 0 W/m 25,7 km/h (4 Bft)
31.01.2013 05:20 7,2 C 5,7 C 86 % 0 lf 1015,8 hPa 0,0 l/m 0 min 0,0 UV-I 0 W/m 30,9 km/h (5 Bft)
31.01.2013 05:22 7,2 C 5,7 C 86 % 0 lf 1015,8 hPa 0,0 l/m 0 min 0,0 UV-I 0 W/m 20,6 km/h (4 Bft)
31.01.2013 05:24 7,2 C 5,7 C 86 % 0 lf 1015,7 hPa 0,0 l/m 0 min 0,0 UV-I 0 W/m 25,7 km/h (4 Bft)
31.01.2013 05:26 7,2 C 5,7 C 86 % 0 lf 1015,8 hPa 0,0 l/m 0 min 0,0 UV-I 0 W/m 33,5 km/h (5 Bft)
31.01.2013 05:28 7,2 C 5,7 C 86 % 0 lf 1015,6 hPa 0,0 l/m 0 min 0,0 UV-I 0 W/m 28,3 km/h (4 Bft)
31.01.2013 05:30 7,2 C 5,7 C 86 % 0 lf 1015,7 hPa 0,0 l/m 0 min 0,0 UV-I 0 W/m 30,9 km/h (5 Bft)
31.01.2013 05:32 7,2 C 5,7 C 86 % 0 lf 1015,7 hPa 0,0 l/m 0 min 0,0 UV-I 0 W/m 28,3 km/h (4 Bft)
31.01.2013 05:34 7,2 C 5,7 C 86 % 0 lf 1015,5 hPa 0,0 l/m 0 min 0,0 UV-I 0 W/m 23,2 km/h (4 Bft)
31.01.2013 05:36 7,2 C 5,7 C 86 % 0 lf 1015,6 hPa 0,0 l/m 0 min 0,0 UV-I 0 W/m 15,4 km/h (3 Bft)
31.01.2013 05:38 7,2 C 5,7 C 86 % 0 lf 1015,5 hPa 0,0 l/m 0 min 0,0 UV-I 0 W/m 25,7 km/h (4 Bft)
31.01.2013 05:40 7,2 C 5,7 C 86 % 0 lf 1015,4 hPa 0,0 l/m 0 min 0,0 UV-I 0 W/m 18,0 km/h (3 Bft)
31.01.2013 05:42 7,2 C 5,7 C 86 % 0 lf 1015,4 hPa 0,0 l/m 0 min 0,0 UV-I 0 W/m 20,6 km/h (4 Bft)
31.01.2013 05:44 7,2 C 5,7 C 86 % 0 lf 1015,5 hPa 0,0 l/m 0 min 0,0 UV-I 0 W/m 25,7 km/h (4 Bft)
31.01.2013 05:46 7,2 C 5,7 C 86 % 0 lf 1015,7 hPa 0,0 l/m 0 min 0,0 UV-I 0 W/m 20,6 km/h (4 Bft)
31.01.2013 05:48 7,2 C 5,7 C 86 % 0 lf 1015,6 hPa 0,0 l/m 0 min 0,0 UV-I 0 W/m 23,2 km/h (4 Bft)
31.01.2013 05:50 7,2 C 5,7 C 86 % 0 lf 1015,6 hPa 0,0 l/m 0 min 0,0 UV-I 0 W/m 15,4 km/h (3 Bft)
31.01.2013 05:52 7,2 C 5,7 C 86 % 0 lf 1015,7 hPa 0,0 l/m 0 min 0,0 UV-I 0 W/m 23,2 km/h (4 Bft)
31.01.2013 05:54 7,2 C 5,7 C 86 % 0 lf 1015,7 hPa 0,0 l/m 0 min 0,0 UV-I 0 W/m 25,7 km/h (4 Bft)
31.01.2013 05:56 7,2 C 5,7 C 86 % 0 lf 1015,7 hPa 0,0 l/m 0 min 0,0 UV-I 0 W/m 23,2 km/h (4 Bft)
31.01.2013 05:58 7,2 C 5,7 C 86 % 0 lf 1015,7 hPa 0,0 l/m 0 min 0,0 UV-I 0 W/m 23,2 km/h (4 Bft)
31.01.2013 06:00 7,2 C 5,7 C 86 % 0 lf 1015,5 hPa 0,0 l/m 0 min 0,0 UV-I 0 W/m 28,3 km/h (4 Bft)
31.01.2013 06:02 7,2 C 5,7 C 87 % 0 lf 1015,4 hPa 0,0 l/m 0 min 0,0 UV-I 0 W/m 28,3 km/h (4 Bft)
31.01.2013 06:04 7,2 C 5,7 C 86 % 0 lf 1015,4 hPa 0,0 l/m 0 min 0,0 UV-I 0 W/m 36,0 km/h (5 Bft)
31.01.2013 06:06 7,2 C 5,7 C 86 % 0 lf 1015,4 hPa 0,0 l/m 0 min 0,0 UV-I 0 W/m 15,4 km/h (3 Bft)
31.01.2013 06:08 7,2 C 5,7 C 87 % 0 lf 1015,2 hPa 0,0 l/m 0 min 0,0 UV-I 0 W/m 15,4 km/h (3 Bft)
31.01.2013 06:10 7,2 C 5,7 C 86 % 0 lf 1015,2 hPa 0,0 l/m 0 min 0,0 UV-I 0 W/m 23,2 km/h (4 Bft)
31.01.2013 06:12 7,2 C 5,7 C 86 % 0 lf 1015,0 hPa 0,0 l/m 0 min 0,0 UV-I 0 W/m 20,6 km/h (4 Bft)
31.01.2013 06:14 7,2 C 5,7 C 86 % 0 lf 1015,0 hPa 0,0 l/m 0 min 0,0 UV-I 0 W/m 15,4 km/h (3 Bft)
31.01.2013 06:16 7,2 C 5,7 C 86 % 0 lf 1015,0 hPa 0,0 l/m 0 min 0,0 UV-I 0 W/m 25,7 km/h (4 Bft)
31.01.2013 06:18 7,2 C 6,2 C 86 % 0 lf 1015,0 hPa 0,0 l/m 0 min 0,0 UV-I 0 W/m 28,3 km/h (4 Bft)
31.01.2013 06:20 7,2 C 6,2 C 86 % 0 lf 1015,2 hPa 0,0 l/m 0 min 0,0 UV-I 0 W/m 23,2 km/h (4 Bft)
31.01.2013 06:22 7,3 C 6,2 C 86 % 0 lf 1015,2 hPa 0,0 l/m 0 min 0,0 UV-I 0 W/m 15,4 km/h (3 Bft)
31.01.2013 06:24 7,2 C 6,2 C 86 % 0 lf 1015,1 hPa 0,0 l/m 0 min 0,0 UV-I 0 W/m 25,7 km/h (4 Bft)
31.01.2013 06:26 7,3 C 6,2 C 86 % 0 lf 1015,2 hPa 0,0 l/m 0 min 0,0 UV-I 0 W/m 20,6 km/h (4 Bft)
31.01.2013 06:28 7,3 C 6,2 C 86 % 0 lf 1015,4 hPa 0,0 l/m 0 min 0,0 UV-I 0 W/m 28,3 km/h (4 Bft)
31.01.2013 06:30 7,3 C 6,2 C 86 % 0 lf 1015,2 hPa 0,0 l/m 0 min 0,0 UV-I 0 W/m 33,5 km/h (5 Bft)
31.01.2013 06:32 7,3 C 5,7 C 86 % 0 lf 1015,3 hPa 0,0 l/m 0 min 0,0 UV-I 0 W/m 15,4 km/h (3 Bft)
31.01.2013 06:34 7,3 C 5,7 C 86 % 0 lf 1015,3 hPa 0,0 l/m 0 min 0,0 UV-I 0 W/m 20,6 km/h (4 Bft)
31.01.2013 06:36 7,3 C 5,7 C 86 % 0 lf 1015,2 hPa 0,0 l/m 0 min 0,0 UV-I 0 W/m 20,6 km/h (4 Bft)
31.01.2013 06:38 7,3 C 5,7 C 86 % 0 lf 1015,2 hPa 0,0 l/m 0 min 0,0 UV-I 0 W/m 20,6 km/h (4 Bft)
31.01.2013 06:40 7,3 C 5,7 C 86 % 0 lf 1015,0 hPa 0,0 l/m 0 min 0,0 UV-I 0 W/m 12,9 km/h (3 Bft)
31.01.2013 06:42 7,3 C 5,7 C 86 % 0 lf 1015,0 hPa 0,0 l/m 0 min 0,0 UV-I 0 W/m 23,2 km/h (4 Bft)
31.01.2013 06:44 7,2 C 5,7 C 86 % 0 lf 1015,1 hPa 0,0 l/m 0 min 0,0 UV-I 0 W/m 18,0 km/h (3 Bft)
31.01.2013 06:46 7,2 C 5,7 C 86 % 0 lf 1015,0 hPa 0,0 l/m 0 min 0,0 UV-I 0 W/m 12,9 km/h (3 Bft)
31.01.2013 06:48 7,2 C 5,7 C 86 % 0 lf 1015,0 hPa 0,0 l/m 0 min 0,0 UV-I 0 W/m 25,7 km/h (4 Bft)
31.01.2013 06:50 7,2 C 5,7 C 86 % 0 lf 1015,1 hPa 0,0 l/m 0 min 0,0 UV-I 0 W/m 15,4 km/h (3 Bft)
31.01.2013 06:52 7,2 C 5,7 C 86 % 0 lf 1015,1 hPa 0,0 l/m 0 min 0,0 UV-I 0 W/m 20,6 km/h (4 Bft)
31.01.2013 06:54 7,2 C 5,7 C 86 % 0 lf 1015,1 hPa 0,0 l/m 0 min 0,0 UV-I 0 W/m 23,2 km/h (4 Bft)
31.01.2013 06:56 7,2 C 5,7 C 86 % 0 lf 1015,0 hPa 0,0 l/m 0 min 0,0 UV-I 0 W/m 18,0 km/h (3 Bft)
31.01.2013 06:58 7,2 C 5,7 C 87 % 0 lf 1015,0 hPa 0,0 l/m 0 min 0,0 UV-I 0 W/m 28,3 km/h (4 Bft)
31.01.2013 07:00 7,2 C 5,7 C 87 % 0 lf 1015,0 hPa 0,0 l/m 0 min 0,0 UV-I 0 W/m 10,3 km/h (2 Bft)
31.01.2013 07:02 7,2 C 5,7 C 87 % 0 lf 1015,0 hPa 0,0 l/m 0 min 0,0 UV-I 0 W/m 18,0 km/h (3 Bft)
31.01.2013 07:04 7,2 C 5,7 C 87 % 0 lf 1015,0 hPa 0,0 l/m 0 min 0,0 UV-I 0 W/m 12,9 km/h (3 Bft)
31.01.2013 07:06 7,2 C 5,7 C 87 % 0 lf 1015,0 hPa 0,0 l/m 0 min 0,0 UV-I 0 W/m 20,6 km/h (4 Bft)
31.01.2013 07:08 7,2 C 5,7 C 87 % 0 lf 1015,0 hPa 0,0 l/m 0 min 0,0 UV-I 0 W/m 12,9 km/h (3 Bft)
31.01.2013 07:10 7,2 C 5,7 C 87 % 0 lf 1015,2 hPa 0,0 l/m 0 min 0,0 UV-I 0 W/m 23,2 km/h (4 Bft)
31.01.2013 07:12 7,2 C 5,7 C 88 % 0 lf 1015,2 hPa 0,0 l/m 0 min 0,0 UV-I 0 W/m 25,7 km/h (4 Bft)
31.01.2013 07:14 7,2 C 5,7 C 88 % 0 lf 1015,1 hPa 0,0 l/m 0 min 0,0 UV-I 0 W/m 15,4 km/h (3 Bft)
31.01.2013 07:16 7,2 C 5,7 C 88 % 0 lf 1015,0 hPa 0,0 l/m 0 min 0,0 UV-I 0 W/m 20,6 km/h (4 Bft)
31.01.2013 07:18 7,2 C 5,7 C 88 % 0 lf 1015,0 hPa 0,0 l/m 0 min 0,0 UV-I 0 W/m 18,0 km/h (3 Bft)
31.01.2013 07:20 7,2 C 5,7 C 88 % 0 lf 1015,1 hPa 0,0 l/m 0 min 0,0 UV-I 0 W/m 18,0 km/h (3 Bft)
31.01.2013 07:22 7,1 C 5,7 C 88 % 0 lf 1015,1 hPa 0,0 l/m 0 min 0,0 UV-I 0 W/m 18,0 km/h (3 Bft)
31.01.2013 07:24 7,1 C 5,7 C 88 % 0 lf 1015,0 hPa 0,0 l/m 0 min 0,0 UV-I 0 W/m 18,0 km/h (3 Bft)
31.01.2013 07:26 7,1 C 5,7 C 88 % 0 lf 1014,9 hPa 0,0 l/m 0 min 0,0 UV-I 0 W/m 20,6 km/h (4 Bft)
31.01.2013 07:28 7,1 C 5,7 C 88 % 0 lf 1014,9 hPa 0,0 l/m 0 min 0,0 UV-I 0 W/m 23,2 km/h (4 Bft)
31.01.2013 07:30 7,1 C 5,7 C 88 % 0 lf 1014,8 hPa 0,0 l/m 0 min 0,0 UV-I 0 W/m 18,0 km/h (3 Bft)
31.01.2013 07:32 7,1 C 5,7 C 88 % 0 lf 1014,8 hPa 0,0 l/m 0 min 0,0 UV-I 0 W/m 10,3 km/h (2 Bft)
31.01.2013 07:34 7,1 C 5,7 C 88 % 0 lf 1014,8 hPa 0,0 l/m 0 min 0,0 UV-I 0 W/m 25,7 km/h (4 Bft)
31.01.2013 07:36 7,1 C 5,7 C 88 % 0 lf 1014,7 hPa 0,0 l/m 0 min 0,0 UV-I 0 W/m 10,3 km/h (2 Bft)
31.01.2013 07:38 7,1 C 5,7 C 88 % 0 lf 1014,8 hPa 0,0 l/m 0 min 0,0 UV-I 0 W/m 18,0 km/h (3 Bft)
31.01.2013 07:40 7,0 C 5,7 C 88 % 0 lf 1014,8 hPa 0,0 l/m 0 min 0,0 UV-I 0 W/m 20,6 km/h (4 Bft)
31.01.2013 07:42 7,0 C 5,7 C 88 % 0 lf 1014,8 hPa 0,0 l/m 0 min 0,0 UV-I 0 W/m 15,4 km/h (3 Bft)
31.01.2013 07:44 7,0 C 5,7 C 88 % 0 lf 1014,8 hPa 0,0 l/m 0 min 0,0 UV-I 0 W/m 20,6 km/h (4 Bft)
31.01.2013 07:46 7,0 C 5,7 C 88 % 0 lf 1014,7 hPa 0,0 l/m 0 min 0,0 UV-I 0 W/m 12,9 km/h (3 Bft)
31.01.2013 07:48 7,0 C 5,7 C 88 % 0 lf 1014,9 hPa 0,0 l/m 0 min 0,0 UV-I 0 W/m 15,4 km/h (3 Bft)
31.01.2013 07:50 7,0 C 5,7 C 88 % 0 lf 1014,9 hPa 0,0 l/m 0 min 0,0 UV-I 0 W/m 23,2 km/h (4 Bft)
31.01.2013 07:52 7,0 C 5,7 C 88 % 0 lf 1014,8 hPa 0,0 l/m 0 min 0,0 UV-I 0 W/m 15,4 km/h (3 Bft)
31.01.2013 07:54 7,0 C 5,7 C 88 % 0 lf 1014,8 hPa 0,0 l/m 0 min 0,0 UV-I 0 W/m 15,4 km/h (3 Bft)
31.01.2013 07:56 7,0 C 5,7 C 88 % 0 lf 1014,7 hPa 0,0 l/m 0 min 0,0 UV-I 0 W/m 10,3 km/h (2 Bft)
31.01.2013 07:58 7,0 C 5,7 C 88 % 0 lf 1014,7 hPa 0,0 l/m 0 min 0,0 UV-I 0 W/m 20,6 km/h (4 Bft)
31.01.2013 08:00 7,0 C 5,7 C 88 % 0 lf 1014,7 hPa 0,0 l/m 0 min 0,0 UV-I 0 W/m 25,7 km/h (4 Bft)
31.01.2013 08:02 7,0 C 5,7 C 88 % 0 lf 1014,4 hPa 0,0 l/m 0 min 0,0 UV-I 0 W/m 25,7 km/h (4 Bft)
31.01.2013 08:04 7,0 C 5,7 C 88 % 0 lf 1014,6 hPa 0,0 l/m 0 min 0,0 UV-I 0 W/m 28,3 km/h (4 Bft)
31.01.2013 08:06 7,1 C 5,7 C 88 % 0 lf 1014,5 hPa 0,0 l/m 0 min 0,0 UV-I 0 W/m 15,4 km/h (3 Bft)
31.01.2013 08:08 7,1 C 5,7 C 88 % 0 lf 1014,5 hPa 0,0 l/m 0 min 0,0 UV-I 0 W/m 33,5 km/h (5 Bft)
31.01.2013 08:10 7,1 C 5,7 C 87 % 0 lf 1014,5 hPa 0,0 l/m 0 min 0,0 UV-I 0 W/m 10,3 km/h (2 Bft)
31.01.2013 08:12 7,1 C 5,7 C 87 % 0 lf 1014,5 hPa 0,0 l/m 0 min 0,0 UV-I 0 W/m 25,7 km/h (4 Bft)
31.01.2013 08:14 7,1 C 5,7 C 87 % 0 lf 1014,5 hPa 0,0 l/m 0 min 0,0 UV-I 0 W/m 18,0 km/h (3 Bft)
31.01.2013 08:16 7,1 C 5,7 C 87 % 0 lf 1014,4 hPa 0,0 l/m 0 min 0,0 UV-I 0 W/m 15,4 km/h (3 Bft)
31.01.2013 08:18 7,1 C 5,7 C 87 % 0 lf 1014,5 hPa 0,0 l/m 0 min 0,0 UV-I 0 W/m 18,0 km/h (3 Bft)
31.01.2013 08:20 7,1 C 5,7 C 87 % 0 lf 1014,6 hPa 0,0 l/m 0 min 0,0 UV-I 0 W/m 15,4 km/h (3 Bft)
31.01.2013 08:22 7,1 C 5,7 C 87 % 0 lf 1014,5 hPa 0,0 l/m 0 min 0,0 UV-I 0 W/m 18,0 km/h (3 Bft)
31.01.2013 08:24 7,1 C 5,7 C 87 % 0 lf 1014,6 hPa 0,0 l/m 0 min 0,0 UV-I 0 W/m 23,2 km/h (4 Bft)
31.01.2013 08:26 7,1 C 5,7 C 87 % 0 lf 1014,7 hPa 0,0 l/m 0 min 0,0 UV-I 5 W/m 15,4 km/h (3 Bft)
31.01.2013 08:28 7,1 C 5,7 C 87 % 0 lf 1014,4 hPa 0,0 l/m 0 min 0,0 UV-I 5 W/m 20,6 km/h (4 Bft)
31.01.2013 08:30 7,1 C 5,7 C 87 % 0 lf 1014,5 hPa 0,0 l/m 0 min 0,0 UV-I 5 W/m 38,6 km/h (5 Bft)
31.01.2013 08:32 7,1 C 5,7 C 87 % 0 lf 1014,5 hPa 0,0 l/m 0 min 0,0 UV-I 5 W/m 20,6 km/h (4 Bft)
31.01.2013 08:34 7,1 C 5,7 C 87 % 0 lf 1014,4 hPa 0,0 l/m 0 min 0,0 UV-I 5 W/m 23,2 km/h (4 Bft)
31.01.2013 08:36 7,1 C 5,7 C 87 % 0 lf 1014,4 hPa 0,0 l/m 0 min 0,0 UV-I 7 W/m 28,3 km/h (4 Bft)
31.01.2013 08:38 7,1 C 5,7 C 87 % 0 lf 1014,5 hPa 0,0 l/m 0 min 0,0 UV-I 9 W/m 15,4 km/h (3 Bft)
31.01.2013 08:40 7,1 C 5,7 C 87 % 0 lf 1014,4 hPa 0,0 l/m 0 min 0,0 UV-I 9 W/m 20,6 km/h (4 Bft)
31.01.2013 08:42 7,1 C 5,7 C 87 % 0 lf 1014,4 hPa 0,0 l/m 0 min 0,0 UV-I 11 W/m 7,7 km/h (2 Bft)
31.01.2013 08:44 7,1 C 5,7 C 87 % 0 lf 1014,4 hPa 0,0 l/m 0 min 0,0 UV-I 12 W/m 15,4 km/h (3 Bft)
31.01.2013 08:46 7,1 C 5,7 C 87 % 0 lf 1014,3 hPa 0,0 l/m 0 min 0,0 UV-I 16 W/m 12,9 km/h (3 Bft)
31.01.2013 08:48 7,1 C 5,7 C 87 % 0 lf 1014,4 hPa 0,0 l/m 0 min 0,0 UV-I 18 W/m 25,7 km/h (4 Bft)
31.01.2013 08:50 7,1 C 5,7 C 87 % 0 lf 1014,4 hPa 0,0 l/m 0 min 0,0 UV-I 19 W/m 25,7 km/h (4 Bft)
31.01.2013 08:52 7,2 C 6,2 C 87 % 0 lf 1014,4 hPa 0,0 l/m 0 min 0,0 UV-I 18 W/m 28,3 km/h (4 Bft)
31.01.2013 08:54 7,2 C 6,2 C 86 % 0 lf 1014,2 hPa 0,0 l/m 0 min 0,0 UV-I 19 W/m 20,6 km/h (4 Bft)
31.01.2013 08:56 7,2 C 6,2 C 86 % 0 lf 1014,2 hPa 0,0 l/m 0 min 0,0 UV-I 18 W/m 28,3 km/h (4 Bft)
31.01.2013 08:58 7,2 C 6,2 C 86 % 0 lf 1014,1 hPa 0,0 l/m 0 min 0,0 UV-I 19 W/m 18,0 km/h (3 Bft)
31.01.2013 09:00 7,2 C 5,7 C 86 % 0 lf 1014,0 hPa 0,0 l/m 0 min 0,0 UV-I 21 W/m 18,0 km/h (3 Bft)
31.01.2013 09:02 7,2 C 6,2 C 86 % 0 lf 1013,9 hPa 0,0 l/m 0 min 0,0 UV-I 23 W/m 20,6 km/h (4 Bft)
31.01.2013 09:04 7,2 C 6,2 C 86 % 0 lf 1013,6 hPa 0,0 l/m 0 min 0,0 UV-I 19 W/m 23,2 km/h (4 Bft)
31.01.2013 09:06 7,2 C 6,2 C 86 % 0 lf 1013,5 hPa 0,0 l/m 0 min 0,0 UV-I 19 W/m 33,5 km/h (5 Bft)
31.01.2013 09:08 7,2 C 6,2 C 86 % 0 lf 1013,5 hPa 0,0 l/m 0 min 0,0 UV-I 23 W/m 15,4 km/h (3 Bft)
31.01.2013 09:10 7,2 C 6,2 C 86 % 0 lf 1013,6 hPa 0,0 l/m 0 min 0,0 UV-I 25 W/m 30,9 km/h (5 Bft)
31.01.2013 09:12 7,2 C 6,2 C 86 % 0 lf 1013,6 hPa 0,0 l/m 0 min 0,0 UV-I 25 W/m 18,0 km/h (3 Bft)
31.01.2013 09:14 7,2 C 6,2 C 86 % 0 lf 1013,4 hPa 0,0 l/m 0 min 0,0 UV-I 26 W/m 28,3 km/h (4 Bft)
31.01.2013 09:16 7,3 C 6,2 C 86 % 0 lf 1013,5 hPa 0,0 l/m 0 min 0,0 UV-I 26 W/m 38,6 km/h (5 Bft)
31.01.2013 09:18 7,3 C 6,2 C 86 % 0 lf 1013,2 hPa 0,0 l/m 0 min 0,0 UV-I 26 W/m 18,0 km/h (3 Bft)
31.01.2013 09:20 7,3 C 6,2 C 86 % 0 lf 1013,5 hPa 0,0 l/m 0 min 0,0 UV-I 26 W/m 18,0 km/h (3 Bft)
31.01.2013 09:22 7,3 C 6,2 C 86 % 0 lf 1013,4 hPa 0,0 l/m 0 min 0,0 UV-I 28 W/m 23,2 km/h (4 Bft)
31.01.2013 09:24 7,3 C 6,2 C 86 % 0 lf 1013,3 hPa 0,0 l/m 0 min 0,0 UV-I 32 W/m 28,3 km/h (4 Bft)
31.01.2013 09:26 7,3 C 6,2 C 86 % 0 lf 1013,3 hPa 0,0 l/m 0 min 0,0 UV-I 35 W/m 30,9 km/h (5 Bft)
31.01.2013 09:28 7,3 C 6,2 C 85 % 0 lf 1013,4 hPa 0,0 l/m 0 min 0,0 UV-I 40 W/m 36,0 km/h (5 Bft)
31.01.2013 09:30 7,3 C 6,2 C 85 % 0 lf 1013,2 hPa 0,0 l/m 0 min 0,0 UV-I 37 W/m 12,9 km/h (3 Bft)
31.01.2013 09:32 7,3 C 6,2 C 85 % 0 lf 1013,2 hPa 0,0 l/m 0 min 0,0 UV-I 33 W/m 18,0 km/h (3 Bft)
31.01.2013 09:34 7,3 C 6,2 C 85 % 0 lf 1012,8 hPa 0,0 l/m 0 min 0,0 UV-I 30 W/m 23,2 km/h (4 Bft)
31.01.2013 09:36 7,3 C 6,2 C 85 % 0 lf 1013,2 hPa 0,0 l/m 0 min 0,0 UV-I 32 W/m 23,2 km/h (4 Bft)
31.01.2013 09:38 7,3 C 6,2 C 85 % 0 lf 1012,8 hPa 0,0 l/m 0 min 0,0 UV-I 32 W/m 25,7 km/h (4 Bft)
31.01.2013 09:40 7,4 C 6,2 C 85 % 0 lf 1013,0 hPa 0,0 l/m 0 min 0,0 UV-I 35 W/m 20,6 km/h (4 Bft)
31.01.2013 09:42 7,4 C 6,2 C 85 % 0 lf 1013,0 hPa 0,0 l/m 0 min 0,0 UV-I 44 W/m 30,9 km/h (5 Bft)
31.01.2013 09:44 7,4 C 6,2 C 85 % 0 lf 1012,9 hPa 0,0 l/m 0 min 0,0 UV-I 49 W/m 20,6 km/h (4 Bft)
31.01.2013 09:46 7,4 C 6,2 C 85 % 0 lf 1012,9 hPa 0,0 l/m 0 min 0,0 UV-I 54 W/m 33,5 km/h (5 Bft)
31.01.2013 09:48 7,4 C 6,2 C 84 % 0 lf 1012,9 hPa 0,0 l/m 0 min 0,0 UV-I 42 W/m 28,3 km/h (4 Bft)
31.01.2013 09:50 7,4 C 6,2 C 84 % 0 lf 1012,9 hPa 0,0 l/m 0 min 0,0 UV-I 40 W/m 30,9 km/h (5 Bft)
31.01.2013 09:52 7,4 C 6,2 C 84 % 0 lf 1012,6 hPa 0,0 l/m 0 min 0,0 UV-I 42 W/m 20,6 km/h (4 Bft)
31.01.2013 09:54 7,4 C 6,2 C 84 % 0 lf 1012,7 hPa 0,0 l/m 0 min 0,0 UV-I 40 W/m 36,0 km/h (5 Bft)
31.01.2013 09:56 7,5 C 6,2 C 84 % 0 lf 1012,8 hPa 0,0 l/m 0 min 0,0 UV-I 35 W/m 20,6 km/h (4 Bft)
31.01.2013 09:58 7,5 C 6,2 C 84 % 0 lf 1012,5 hPa 0,0 l/m 0 min 0,0 UV-I 32 W/m 23,2 km/h (4 Bft)
31.01.2013 10:00 7,5 C 6,2 C 84 % 0 lf 1012,5 hPa 0,0 l/m 0 min 0,0 UV-I 39 W/m 25,7 km/h (4 Bft)
31.01.2013 10:02 7,5 C 6,2 C 83 % 0 lf 1012,2 hPa 0,0 l/m 0 min 0,0 UV-I 47 W/m 30,9 km/h (5 Bft)
31.01.2013 10:04 7,5 C 6,2 C 83 % 0 lf 1012,1 hPa 0,0 l/m 0 min 0,0 UV-I 60 W/m 25,7 km/h (4 Bft)
31.01.2013 10:06 7,5 C 6,2 C 83 % 0 lf 1012,1 hPa 0,0 l/m 0 min 0,0 UV-I 63 W/m 23,2 km/h (4 Bft)
31.01.2013 10:08 7,5 C 6,2 C 83 % 0 lf 1012,1 hPa 0,0 l/m 0 min 0,0 UV-I 58 W/m 15,4 km/h (3 Bft)
31.01.2013 10:10 7,5 C 6,2 C 83 % 0 lf 1012,1 hPa 0,0 l/m 0 min 0,0 UV-I 49 W/m 20,6 km/h (4 Bft)
31.01.2013 10:12 7,5 C 6,2 C 83 % 0 lf 1012,1 hPa 0,0 l/m 0 min 0,0 UV-I 53 W/m 10,3 km/h (2 Bft)
31.01.2013 10:14 7,5 C 6,2 C 83 % 0 lf 1012,1 hPa 0,0 l/m 0 min 0,0 UV-I 60 W/m 18,0 km/h (3 Bft)
31.01.2013 10:16 7,5 C 6,2 C 82 % 0 lf 1012,1 hPa 0,0 l/m 0 min 0,0 UV-I 72 W/m 28,3 km/h (4 Bft)
31.01.2013 10:18 7,5 C 6,2 C 82 % 0 lf 1012,0 hPa 0,0 l/m 0 min 0,0 UV-I 77 W/m 28,3 km/h (4 Bft)
31.01.2013 10:20 7,6 C 6,2 C 82 % 0 lf 1012,1 hPa 0,0 l/m 0 min 0,0 UV-I 76 W/m 25,7 km/h (4 Bft)
31.01.2013 10:22 7,6 C 6,2 C 82 % 0 lf 1012,1 hPa 0,0 l/m 0 min 0,0 UV-I 72 W/m 20,6 km/h (4 Bft)
31.01.2013 10:24 7,6 C 6,8 C 82 % 0 lf 1012,1 hPa 0,0 l/m 0 min 0,0 UV-I 74 W/m 25,7 km/h (4 Bft)
31.01.2013 10:26 7,6 C 6,8 C 82 % 0 lf 1012,2 hPa 0,0 l/m 0 min 0,0 UV-I 76 W/m 25,7 km/h (4 Bft)
31.01.2013 10:28 7,6 C 6,8 C 82 % 0 lf 1012,2 hPa 0,0 l/m 0 min 0,0 UV-I 77 W/m 20,6 km/h (4 Bft)
31.01.2013 10:30 7,6 C 6,8 C 82 % 0 lf 1012,2 hPa 0,0 l/m 0 min 0,0 UV-I 77 W/m 25,7 km/h (4 Bft)
31.01.2013 10:32 7,6 C 6,8 C 82 % 0 lf 1012,1 hPa 0,0 l/m 0 min 0,0 UV-I 77 W/m 30,9 km/h (5 Bft)
31.01.2013 10:34 7,6 C 6,8 C 81 % 0 lf 1012,1 hPa 0,0 l/m 0 min 0,0 UV-I 72 W/m 18,0 km/h (3 Bft)
31.01.2013 10:36 7,6 C 6,8 C 81 % 0 lf 1012,1 hPa 0,0 l/m 0 min 0,0 UV-I 70 W/m 33,5 km/h (5 Bft)
31.01.2013 10:38 7,7 C 6,8 C 80 % 0 lf 1012,1 hPa 0,0 l/m 0 min 0,0 UV-I 72 W/m 30,9 km/h (5 Bft)
31.01.2013 10:40 7,7 C 6,8 C 80 % 0 lf 1012,0 hPa 0,0 l/m 0 min 0,0 UV-I 69 W/m 25,7 km/h (4 Bft)
31.01.2013 10:42 7,7 C 6,8 C 80 % 0 lf 1012,0 hPa 0,0 l/m 0 min 0,0 UV-I 74 W/m 30,9 km/h (5 Bft)
31.01.2013 10:45 7,7 C 6,8 C 79 % 0 lf 1011,9 hPa 0,0 l/m 0 min 0,0 UV-I 84 W/m 30,9 km/h (5 Bft)
31.01.2013 10:50 7,8 C 6,8 C 78 % 0 lf 1011,8 hPa 0,0 l/m 0 min 0,0 UV-I 83 W/m 25,7 km/h (4 Bft)
31.01.2013 10:56 7,8 C 6,8 C 77 % 0 lf 1011,6 hPa 0,0 l/m 0 min 0,0 UV-I 65 W/m 23,2 km/h (4 Bft)
31.01.2013 10:58 7,8 C 6,8 C 77 % 0 lf 1011,5 hPa 0,0 l/m 0 min 0,0 UV-I 65 W/m 15,4 km/h (3 Bft)
31.01.2013 11:00 7,8 C 6,8 C 76 % 0 lf 1011,4 hPa 0,0 l/m 0 min 0,0 UV-I 76 W/m 33,5 km/h (5 Bft)
31.01.2013 11:02 7,9 C 6,8 C 76 % 0 lf 1011,5 hPa 0,0 l/m 0 min 0,0 UV-I 81 W/m 25,7 km/h (4 Bft)
31.01.2013 11:04 7,9 C 6,8 C 76 % 0 lf 1011,4 hPa 0,0 l/m 0 min 0,0 UV-I 77 W/m 20,6 km/h (4 Bft)
31.01.2013 11:06 7,9 C 6,8 C 75 % 0 lf 1011,5 hPa 0,0 l/m 0 min 0,0 UV-I 90 W/m 30,9 km/h (5 Bft)
31.01.2013 11:08 8,0 C 7,3 C 75 % 0 lf 1011,3 hPa 0,0 l/m 0 min 0,0 UV-I 104 W/m 30,9 km/h (5 Bft)
31.01.2013 11:10 8,1 C 7,3 C 75 % 0 lf 1011,6 hPa 0,0 l/m 0 min 0,0 UV-I 102 W/m 25,7 km/h (4 Bft)
31.01.2013 11:12 8,1 C 7,3 C 75 % 0 lf 1011,6 hPa 0,0 l/m 0 min 0,0 UV-I 114 W/m 23,2 km/h (4 Bft)
31.01.2013 11:14 8,1 C 7,3 C 75 % 0 lf 1011,3 hPa 0,0 l/m 0 min 0,0 UV-I 128 W/m 28,3 km/h (4 Bft)
31.01.2013 11:16 8,2 C 7,3 C 74 % 0 lf 1011,3 hPa 0,0 l/m 0 min 0,0 UV-I 127 W/m 23,2 km/h (4 Bft)
31.01.2013 11:18 8,2 C 7,3 C 75 % 0 lf 1011,4 hPa 0,0 l/m 0 min 0,0 UV-I 128 W/m 25,7 km/h (4 Bft)
31.01.2013 11:20 8,2 C 7,3 C 75 % 0 lf 1011,2 hPa 0,0 l/m 0 min 0,0 UV-I 148 W/m 25,7 km/h (4 Bft)
31.01.2013 11:22 8,2 C 7,3 C 74 % 0 lf 1011,3 hPa 0,0 l/m 0 min 0,0 UV-I 72 W/m 23,2 km/h (4 Bft)
31.01.2013 11:24 8,3 C 7,3 C 74 % 0 lf 1011,5 hPa 0,0 l/m 0 min 0,0 UV-I 51 W/m 20,6 km/h (4 Bft)
31.01.2013 11:26 8,3 C 6,8 C 74 % 0 lf 1011,2 hPa 0,0 l/m 0 min 0,0 UV-I 49 W/m 28,3 km/h (4 Bft)
31.01.2013 11:28 8,3 C 6,8 C 74 % 0 lf 1011,6 hPa 0,0 l/m 0 min 0,0 UV-I 42 W/m 41,2 km/h (6 Bft)
31.01.2013 11:30 8,2 C 6,8 C 74 % 0 lf 1011,2 hPa 0,0 l/m 0 min 0,0 UV-I 56 W/m 20,6 km/h (4 Bft)
31.01.2013 11:32 8,2 C 6,8 C 74 % 0 lf 1011,2 hPa 0,0 l/m 0 min 0,0 UV-I 65 W/m 28,3 km/h (4 Bft)
31.01.2013 11:34 8,2 C 6,8 C 75 % 0 lf 1011,2 hPa 0,0 l/m 0 min 0,0 UV-I 60 W/m 20,6 km/h (4 Bft)
31.01.2013 11:36 8,2 C 6,8 C 75 % 0 lf 1011,2 hPa 0,0 l/m 0 min 0,0 UV-I 54 W/m 23,2 km/h (4 Bft)
31.01.2013 11:38 8,2 C 6,8 C 75 % 0 lf 1011,2 hPa 0,0 l/m 0 min 0,0 UV-I 26 W/m 23,2 km/h (4 Bft)
31.01.2013 11:40 8,2 C 6,8 C 75 % 0 lf 1011,2 hPa 0,0 l/m 0 min 0,0 UV-I 32 W/m 23,2 km/h (4 Bft)
31.01.2013 11:42 8,2 C 6,8 C 76 % 0 lf 1011,3 hPa 0,0 l/m 0 min 0,0 UV-I 42 W/m 25,7 km/h (4 Bft)
31.01.2013 11:44 8,2 C 6,8 C 76 % 0 lf 1011,4 hPa 0,0 l/m 0 min 0,0 UV-I 63 W/m 38,6 km/h (5 Bft)
31.01.2013 11:46 8,1 C 6,8 C 76 % 2 lf 1011,2 hPa 0,0 l/m 0 min 0,0 UV-I 60 W/m 25,7 km/h (4 Bft)
31.01.2013 11:48 8,1 C 6,8 C 76 % 12 lf 1011,1 hPa 0,0 l/m 0 min 0,0 UV-I 84 W/m 23,2 km/h (4 Bft)
31.01.2013 11:50 8,1 C 6,8 C 77 % 9 lf 1011,2 hPa 0,0 l/m 0 min 0,0 UV-I 76 W/m 20,6 km/h (4 Bft)
31.01.2013 11:52 8,1 C 6,2 C 77 % 2 lf 1011,2 hPa 0,0 l/m 0 min 0,0 UV-I 67 W/m 28,3 km/h (4 Bft)
31.01.2013 11:54 8,1 C 6,2 C 78 % 3 lf 1011,2 hPa 0,0 l/m 0 min 0,0 UV-I 72 W/m 20,6 km/h (4 Bft)
31.01.2013 11:56 8,1 C 6,2 C 78 % 15 lf 1011,2 hPa 0,0 l/m 0 min 0,0 UV-I 47 W/m 33,5 km/h (5 Bft)
31.01.2013 11:58 8,0 C 5,7 C 79 % 15 lf 1011,2 hPa 0,0 l/m 0 min 0,0 UV-I 42 W/m 33,5 km/h (5 Bft)
31.01.2013 12:00 7,9 C 5,7 C 79 % 15 lf 1011,2 hPa 0,0 l/m 0 min 0,0 UV-I 40 W/m 28,3 km/h (4 Bft)
31.01.2013 12:02 7,9 C 5,7 C 80 % 15 lf 1011,1 hPa 0,0 l/m 0 min 0,0 UV-I 28 W/m 33,5 km/h (5 Bft)
31.01.2013 12:04 7,8 C 5,1 C 80 % 15 lf 1010,9 hPa 0,0 l/m 0 min 0,0 UV-I 25 W/m 20,6 km/h (4 Bft)
31.01.2013 12:06 7,7 C 5,1 C 81 % 15 lf 1011,1 hPa 0,2 l/m 0 min 0,0 UV-I 18 W/m 33,5 km/h (5 Bft)
31.01.2013 12:08 7,6 C 5,1 C 82 % 15 lf 1010,7 hPa 0,0 l/m 0 min 0,0 UV-I 16 W/m 36,0 km/h (5 Bft)
31.01.2013 12:10 7,6 C 4,6 C 83 % 15 lf 1010,9 hPa 0,0 l/m 0 min 0,0 UV-I 16 W/m 25,7 km/h (4 Bft)
31.01.2013 12:12 7,5 C 4,6 C 83 % 15 lf 1010,9 hPa 0,0 l/m 0 min 0,0 UV-I 19 W/m 25,7 km/h (4 Bft)
31.01.2013 12:14 7,4 C 4,6 C 84 % 15 lf 1010,9 hPa 0,0 l/m 0 min 0,0 UV-I 30 W/m 23,2 km/h (4 Bft)
31.01.2013 12:16 7,3 C 4,6 C 84 % 15 lf 1010,9 hPa 0,0 l/m 0 min 0,0 UV-I 26 W/m 41,2 km/h (6 Bft)
31.01.2013 12:18 7,3 C 4,6 C 85 % 15 lf 1010,8 hPa 0,2 l/m 0 min 0,0 UV-I 32 W/m 51,5 km/h (7 Bft)
31.01.2013 12:20 7,2 C 4,6 C 85 % 15 lf 1011,0 hPa 0,0 l/m 0 min 0,0 UV-I 37 W/m 28,3 km/h (4 Bft)
31.01.2013 12:22 7,2 C 4,6 C 86 % 15 lf 1010,9 hPa 0,0 l/m 0 min 0,0 UV-I 33 W/m 10,3 km/h (2 Bft)
31.01.2013 12:24 7,2 C 4,6 C 86 % 15 lf 1010,9 hPa 0,0 l/m 0 min 0,0 UV-I 28 W/m 23,2 km/h (4 Bft)
31.01.2013 12:26 7,1 C 4,6 C 86 % 15 lf 1010,9 hPa 0,0 l/m 0 min 0,0 UV-I 28 W/m 38,6 km/h (5 Bft)
31.01.2013 12:28 7,1 C 4,6 C 87 % 15 lf 1010,9 hPa 0,2 l/m 0 min 0,0 UV-I 23 W/m 23,2 km/h (4 Bft)
31.01.2013 12:30 7,0 C 4,6 C 87 % 15 lf 1011,4 hPa 0,0 l/m 0 min 0,0 UV-I 19 W/m 33,5 km/h (5 Bft)
31.01.2013 12:32 6,9 C 4,6 C 87 % 15 lf 1011,3 hPa 0,0 l/m 0 min 0,0 UV-I 25 W/m 33,5 km/h (5 Bft)
31.01.2013 12:34 6,9 C 4,6 C 88 % 15 lf 1011,1 hPa 0,0 l/m 0 min 0,0 UV-I 35 W/m 25,7 km/h (4 Bft)
31.01.2013 12:36 6,9 C 4,6 C 88 % 15 lf 1011,2 hPa 0,0 l/m 0 min 0,0 UV-I 33 W/m 28,3 km/h (4 Bft)
31.01.2013 12:38 6,8 C 4,6 C 89 % 15 lf 1011,3 hPa 0,2 l/m 0 min 0,0 UV-I 37 W/m 25,7 km/h (4 Bft)
31.01.2013 12:40 6,8 C 4,6 C 89 % 15 lf 1011,2 hPa 0,0 l/m 0 min 0,0 UV-I 51 W/m 38,6 km/h (5 Bft)
31.01.2013 12:42 6,7 C 4,6 C 90 % 15 lf 1010,9 hPa 0,0 l/m 0 min 0,0 UV-I 67 W/m 33,5 km/h (5 Bft)
31.01.2013 12:44 6,7 C 4,6 C 90 % 15 lf 1010,9 hPa 0,2 l/m 0 min 0,0 UV-I 76 W/m 30,9 km/h (5 Bft)
31.01.2013 12:46 6,7 C 4,6 C 90 % 15 lf 1011,1 hPa 0,0 l/m 0 min 0,0 UV-I 67 W/m 33,5 km/h (5 Bft)
31.01.2013 12:48 6,7 C 4,6 C 91 % 15 lf 1010,8 hPa 0,0 l/m 0 min 0,0 UV-I 84 W/m 33,5 km/h (5 Bft)
31.01.2013 12:50 6,7 C 4,6 C 91 % 15 lf 1011,0 hPa 0,0 l/m 0 min 0,0 UV-I 74 W/m 30,9 km/h (5 Bft)
31.01.2013 12:52 6,6 C 4,6 C 91 % 14 lf 1010,8 hPa 0,2 l/m 0 min 0,0 UV-I 28 W/m 30,9 km/h (5 Bft)
31.01.2013 12:54 6,6 C 4,6 C 91 % 14 lf 1011,0 hPa 0,0 l/m 0 min 0,0 UV-I 51 W/m 46,3 km/h (6 Bft)
31.01.2013 12:56 6,4 C 4,6 C 91 % 14 lf 1010,7 hPa 0,0 l/m 0 min 0,0 UV-I 56 W/m 30,9 km/h (5 Bft)
31.01.2013 12:58 6,4 C 4,6 C 91 % 14 lf 1010,5 hPa 0,2 l/m 0 min 0,0 UV-I 74 W/m 38,6 km/h (5 Bft)
31.01.2013 13:00 6,3 C 4,6 C 91 % 15 lf 1010,5 hPa 0,0 l/m 0 min 0,0 UV-I 44 W/m 46,3 km/h (6 Bft)
31.01.2013 13:02 6,3 C 4,6 C 92 % 15 lf 1010,5 hPa 0,0 l/m 0 min 0,0 UV-I 46 W/m 30,9 km/h (5 Bft)
31.01.2013 13:04 6,3 C 4,6 C 92 % 15 lf 1010,7 hPa 0,0 l/m 0 min 0,0 UV-I 49 W/m 28,3 km/h (4 Bft)
31.01.2013 13:06 6,2 C 4,6 C 92 % 15 lf 1011,0 hPa 0,0 l/m 0 min 0,0 UV-I 56 W/m 38,6 km/h (5 Bft)
31.01.2013 13:08 6,2 C 4,6 C 92 % 15 lf 1010,9 hPa 0,0 l/m 0 min 0,0 UV-I 40 W/m 43,8 km/h (6 Bft)
31.01.2013 13:10 6,2 C 4,6 C 92 % 15 lf 1010,8 hPa 0,2 l/m 0 min 0,0 UV-I 56 W/m 43,8 km/h (6 Bft)
31.01.2013 13:14 6,2 C 4,6 C 93 % 15 lf 1010,5 hPa 0,0 l/m 0 min 0,0 UV-I 35 W/m 30,9 km/h (5 Bft)
31.01.2013 13:16 6,2 C 4,6 C 93 % 15 lf 1010,3 hPa 0,0 l/m 0 min 0,0 UV-I 35 W/m 28,3 km/h (4 Bft)
31.01.2013 13:18 6,2 C 4,6 C 93 % 15 lf 1010,0 hPa 0,0 l/m 0 min 0,0 UV-I 56 W/m 43,8 km/h (6 Bft)
31.01.2013 13:20 6,3 C 4,6 C 93 % 15 lf 1009,6 hPa 0,0 l/m 0 min 0,0 UV-I 56 W/m 43,8 km/h (6 Bft)
31.01.2013 13:22 6,3 C 4,6 C 93 % 15 lf 1009,8 hPa 0,0 l/m 0 min 0,0 UV-I 51 W/m 30,9 km/h (5 Bft)
31.01.2013 13:24 6,3 C 4,6 C 93 % 15 lf 1009,8 hPa 0,0 l/m 0 min 0,0 UV-I 49 W/m 23,2 km/h (4 Bft)
31.01.2013 13:26 6,3 C 4,6 C 93 % 14 lf 1009,9 hPa 0,0 l/m 0 min 0,0 UV-I 60 W/m 41,2 km/h (6 Bft)
31.01.2013 13:28 6,3 C 4,6 C 93 % 14 lf 1009,6 hPa 0,0 l/m 0 min 0,0 UV-I 69 W/m 30,9 km/h (5 Bft)
31.01.2013 13:30 6,4 C 4,6 C 93 % 14 lf 1009,9 hPa 0,0 l/m 0 min 0,0 UV-I 65 W/m 20,6 km/h (4 Bft)
31.01.2013 13:32 6,4 C 4,6 C 93 % 13 lf 1010,0 hPa 0,0 l/m 0 min 0,0 UV-I 62 W/m 30,9 km/h (5 Bft)
31.01.2013 13:34 6,4 C 4,6 C 92 % 13 lf 1009,9 hPa 0,0 l/m 0 min 0,0 UV-I 67 W/m 28,3 km/h (4 Bft)
31.01.2013 13:36 6,5 C 5,1 C 93 % 13 lf 1009,8 hPa 0,0 l/m 0 min 0,0 UV-I 72 W/m 23,2 km/h (4 Bft)
31.01.2013 13:38 6,5 C 5,1 C 93 % 12 lf 1009,8 hPa 0,0 l/m 0 min 0,0 UV-I 72 W/m 20,6 km/h (4 Bft)
31.01.2013 13:40 6,6 C 5,1 C 93 % 11 lf 1009,9 hPa 0,0 l/m 0 min 0,0 UV-I 72 W/m 30,9 km/h (5 Bft)
31.01.2013 13:42 6,6 C 5,1 C 92 % 9 lf 1010,1 hPa 0,0 l/m 0 min 0,0 UV-I 70 W/m 28,3 km/h (4 Bft)
31.01.2013 13:44 6,7 C 5,1 C 92 % 8 lf 1009,9 hPa 0,0 l/m 0 min 0,0 UV-I 76 W/m 23,2 km/h (4 Bft)
31.01.2013 13:46 6,7 C 5,1 C 92 % 5 lf 1010,0 hPa 0,0 l/m 0 min 0,0 UV-I 83 W/m 23,2 km/h (4 Bft)
31.01.2013 13:48 6,7 C 5,1 C 92 % 4 lf 1009,9 hPa 0,0 l/m 0 min 0,0 UV-I 90 W/m 30,9 km/h (5 Bft)
31.01.2013 13:50 6,8 C 5,1 C 91 % 3 lf 1009,7 hPa 0,0 l/m 0 min 0,0 UV-I 105 W/m 36,0 km/h (5 Bft)
31.01.2013 13:52 6,8 C 5,1 C 91 % 3 lf 1009,8 hPa 0,0 l/m 0 min 0,0 UV-I 109 W/m 28,3 km/h (4 Bft)
31.01.2013 13:54 6,9 C 5,1 C 91 % 3 lf 1009,7 hPa 0,0 l/m 0 min 0,0 UV-I 111 W/m 30,9 km/h (5 Bft)
31.01.2013 13:56 6,9 C 5,1 C 91 % 2 lf 1009,8 hPa 0,0 l/m 0 min 0,0 UV-I 102 W/m 48,9 km/h (6 Bft)
31.01.2013 13:58 7,1 C 5,1 C 90 % 2 lf 1009,7 hPa 0,0 l/m 0 min 0,0 UV-I 100 W/m 38,6 km/h (5 Bft)
31.01.2013 14:00 7,1 C 5,7 C 90 % 2 lf 1009,6 hPa 0,0 l/m 2 min 0,0 UV-I 411 W/m 36,0 km/h (5 Bft)
31.01.2013 14:02 7,2 C 5,7 C 90 % 1 lf 1010,0 hPa 0,0 l/m 2 min 0,0 UV-I 411 W/m 43,8 km/h (6 Bft)
31.01.2013 14:04 7,3 C 5,7 C 90 % 1 lf 1009,5 hPa 0,0 l/m 0 min 0,0 UV-I 185 W/m 38,6 km/h (5 Bft)
31.01.2013 14:06 7,4 C 5,7 C 90 % 1 lf 1009,5 hPa 0,0 l/m 0 min 0,0 UV-I 185 W/m 23,2 km/h (4 Bft)
31.01.2013 14:08 7,4 C 5,7 C 90 % 1 lf 1009,7 hPa 0,0 l/m 0 min 0,0 UV-I 107 W/m 38,6 km/h (5 Bft)
31.01.2013 14:10 7,4 C 5,7 C 90 % 0 lf 1009,7 hPa 0,0 l/m 0 min 0,0 UV-I 83 W/m 28,3 km/h (4 Bft)
31.01.2013 14:12 7,5 C 5,7 C 89 % 0 lf 1009,8 hPa 0,0 l/m 0 min 0,0 UV-I 42 W/m 28,3 km/h (4 Bft)
31.01.2013 14:14 7,5 C 5,7 C 89 % 0 lf 1010,0 hPa 0,0 l/m 0 min 0,0 UV-I 42 W/m 36,0 km/h (5 Bft)
31.01.2013 14:16 7,6 C 5,7 C 89 % 0 lf 1009,6 hPa 0,0 l/m 0 min 0,0 UV-I 46 W/m 23,2 km/h (4 Bft)
31.01.2013 14:18 7,6 C 5,7 C 89 % 0 lf 1009,7 hPa 0,0 l/m 0 min 0,0 UV-I 44 W/m 38,6 km/h (5 Bft)
31.01.2013 14:20 7,6 C 5,7 C 89 % 0 lf 1009,9 hPa 0,0 l/m 0 min 0,0 UV-I 42 W/m 38,6 km/h (5 Bft)
31.01.2013 14:22 7,6 C 5,7 C 89 % 0 lf 1009,5 hPa 0,0 l/m 0 min 0,0 UV-I 35 W/m 30,9 km/h (5 Bft)
31.01.2013 14:24 7,6 C 6,2 C 89 % 0 lf 1009,6 hPa 0,0 l/m 0 min 0,0 UV-I 47 W/m 28,3 km/h (4 Bft)
31.01.2013 14:26 7,6 C 6,2 C 89 % 0 lf 1009,7 hPa 0,0 l/m 0 min 0,0 UV-I 51 W/m 33,5 km/h (5 Bft)
31.01.2013 14:28 7,6 C 6,2 C 89 % 0 lf 1010,0 hPa 0,0 l/m 0 min 0,0 UV-I 46 W/m 48,9 km/h (6 Bft)
31.01.2013 14:30 7,7 C 6,2 C 89 % 0 lf 1009,8 hPa 0,0 l/m 0 min 0,0 UV-I 49 W/m 38,6 km/h (5 Bft)
31.01.2013 14:32 7,7 C 6,2 C 89 % 0 lf 1009,8 hPa 0,0 l/m 0 min 0,0 UV-I 56 W/m 23,2 km/h (4 Bft)
31.01.2013 14:34 7,7 C 6,2 C 89 % 0 lf 1009,6 hPa 0,0 l/m 0 min 0,0 UV-I 53 W/m 33,5 km/h (5 Bft)
31.01.2013 14:36 7,7 C 6,2 C 89 % 0 lf 1009,8 hPa 0,0 l/m 0 min 0,0 UV-I 56 W/m 33,5 km/h (5 Bft)
31.01.2013 14:38 7,7 C 6,8 C 89 % 0 lf 1009,5 hPa 0,0 l/m 0 min 0,0 UV-I 109 W/m 28,3 km/h (4 Bft)
31.01.2013 14:40 7,8 C 6,8 C 89 % 0 lf 1009,7 hPa 0,0 l/m 0 min 0,0 UV-I 139 W/m 30,9 km/h (5 Bft)
31.01.2013 14:42 7,8 C 6,8 C 90 % 0 lf 1009,4 hPa 0,0 l/m 0 min 0,0 UV-I 91 W/m 15,4 km/h (3 Bft)
31.01.2013 14:44 7,8 C 6,8 C 90 % 0 lf 1009,4 hPa 0,0 l/m 0 min 0,0 UV-I 118 W/m 23,2 km/h (4 Bft)
31.01.2013 14:46 7,9 C 6,8 C 90 % 0 lf 1009,4 hPa 0,0 l/m 0 min 0,0 UV-I 156 W/m 20,6 km/h (4 Bft)
31.01.2013 14:48 7,9 C 7,3 C 89 % 0 lf 1009,3 hPa 0,0 l/m 0 min 0,0 UV-I 111 W/m 30,9 km/h (5 Bft)
31.01.2013 14:50 8,1 C 7,3 C 90 % 0 lf 1009,1 hPa 0,0 l/m 2 min 0,0 UV-I 251 W/m 23,2 km/h (4 Bft)
31.01.2013 14:52 8,1 C 7,3 C 89 % 0 lf 1009,1 hPa 0,0 l/m 0 min 0,0 UV-I 97 W/m 33,5 km/h (5 Bft)
31.01.2013 14:54 8,2 C 7,3 C 89 % 0 lf 1009,7 hPa 0,0 l/m 0 min 0,0 UV-I 118 W/m 28,3 km/h (4 Bft)
31.01.2013 14:56 8,2 C 7,3 C 89 % 0 lf 1009,1 hPa 0,0 l/m 2 min 0,0 UV-I 216 W/m 20,6 km/h (4 Bft)
31.01.2013 14:58 8,3 C 7,3 C 89 % 0 lf 1009,1 hPa 0,0 l/m 0 min 0,0 UV-I 142 W/m 20,6 km/h (4 Bft)
31.01.2013 15:00 8,3 C 7,3 C 89 % 0 lf 1009,0 hPa 0,0 l/m 2 min 0,0 UV-I 178 W/m 25,7 km/h (4 Bft)
31.01.2013 15:02 8,3 C 7,3 C 89 % 0 lf 1008,9 hPa 0,0 l/m 2 min 0,0 UV-I 204 W/m 20,6 km/h (4 Bft)
31.01.2013 15:04 8,3 C 7,3 C 88 % 0 lf 1008,9 hPa 0,0 l/m 2 min 0,0 UV-I 165 W/m 33,5 km/h (5 Bft)
31.01.2013 15:06 8,4 C 7,3 C 88 % 0 lf 1008,8 hPa 0,0 l/m 2 min 0,0 UV-I 204 W/m 28,3 km/h (4 Bft)
31.01.2013 15:08 8,4 C 7,3 C 88 % 0 lf 1008,9 hPa 0,0 l/m 2 min 0,0 UV-I 237 W/m 25,7 km/h (4 Bft)
31.01.2013 15:10 8,4 C 7,3 C 88 % 0 lf 1008,9 hPa 0,0 l/m 0 min 0,0 UV-I 139 W/m 20,6 km/h (4 Bft)
31.01.2013 15:12 8,5 C 7,3 C 88 % 0 lf 1008,9 hPa 0,0 l/m 0 min 0,0 UV-I 95 W/m 28,3 km/h (4 Bft)
31.01.2013 15:14 8,5 C 7,3 C 88 % 0 lf 1008,8 hPa 0,0 l/m 0 min 0,0 UV-I 93 W/m 18,0 km/h (3 Bft)
31.01.2013 15:16 8,5 C 7,3 C 88 % 0 lf 1009,1 hPa 0,0 l/m 0 min 0,0 UV-I 98 W/m 28,3 km/h (4 Bft)
31.01.2013 15:18 8,5 C 7,3 C 88 % 0 lf 1008,9 hPa 0,0 l/m 0 min 0,0 UV-I 97 W/m 18,0 km/h (3 Bft)
31.01.2013 15:20 8,5 C 7,3 C 88 % 0 lf 1009,0 hPa 0,0 l/m 0 min 0,0 UV-I 114 W/m 30,9 km/h (5 Bft)
31.01.2013 15:22 8,5 C 7,3 C 88 % 0 lf 1008,8 hPa 0,0 l/m 0 min 0,0 UV-I 104 W/m 25,7 km/h (4 Bft)
31.01.2013 15:24 8,5 C 7,3 C 88 % 0 lf 1009,0 hPa 0,0 l/m 0 min 0,0 UV-I 88 W/m 23,2 km/h (4 Bft)
31.01.2013 15:26 8,5 C 7,3 C 88 % 0 lf 1008,8 hPa 0,0 l/m 0 min 0,0 UV-I 76 W/m 20,6 km/h (4 Bft)
31.01.2013 15:28 8,5 C 7,3 C 88 % 0 lf 1008,9 hPa 0,0 l/m 0 min 0,0 UV-I 53 W/m 30,9 km/h (5 Bft)
31.01.2013 15:30 8,5 C 7,3 C 88 % 0 lf 1009,0 hPa 0,0 l/m 0 min 0,0 UV-I 42 W/m 30,9 km/h (5 Bft)
31.01.2013 15:32 8,5 C 7,3 C 88 % 0 lf 1009,0 hPa 0,0 l/m 0 min 0,0 UV-I 30 W/m 20,6 km/h (4 Bft)
31.01.2013 15:34 8,5 C 7,3 C 88 % 1 lf 1008,9 hPa 0,0 l/m 0 min 0,0 UV-I 18 W/m 20,6 km/h (4 Bft)
31.01.2013 15:36 8,5 C 6,8 C 88 % 15 lf 1008,9 hPa 0,0 l/m 0 min 0,0 UV-I 11 W/m 30,9 km/h (5 Bft)
31.01.2013 15:38 8,5 C 6,2 C 88 % 15 lf 1009,0 hPa 0,0 l/m 0 min 0,0 UV-I 5 W/m 15,4 km/h (3 Bft)
31.01.2013 15:40 8,4 C 6,2 C 89 % 15 lf 1009,1 hPa 0,0 l/m 0 min 0,0 UV-I 5 W/m 20,6 km/h (4 Bft)
31.01.2013 15:42 8,4 C 5,7 C 90 % 15 lf 1009,0 hPa 0,0 l/m 0 min 0,0 UV-I 0 W/m 15,4 km/h (3 Bft)
31.01.2013 15:44 8,3 C 5,7 C 90 % 15 lf 1009,0 hPa 0,2 l/m 0 min 0,0 UV-I 5 W/m 15,4 km/h (3 Bft)
31.01.2013 15:46 8,3 C 5,7 C 90 % 15 lf 1008,9 hPa 0,2 l/m 0 min 0,0 UV-I 9 W/m 30,9 km/h (5 Bft)
31.01.2013 15:48 8,2 C 5,7 C 91 % 15 lf 1008,9 hPa 0,0 l/m 0 min 0,0 UV-I 5 W/m 12,9 km/h (3 Bft)
31.01.2013 15:50 8,2 C 5,7 C 91 % 15 lf 1008,9 hPa 0,2 l/m 0 min 0,0 UV-I 7 W/m 20,6 km/h (4 Bft)
31.01.2013 15:52 8,1 C 5,7 C 91 % 15 lf 1009,0 hPa 0,2 l/m 0 min 0,0 UV-I 7 W/m 18,0 km/h (3 Bft)
31.01.2013 15:54 8,0 C 5,7 C 92 % 15 lf 1009,0 hPa 0,4 l/m 0 min 0,0 UV-I 5 W/m 46,3 km/h (6 Bft)
31.01.2013 15:56 7,9 C 5,7 C 92 % 15 lf 1009,0 hPa 0,0 l/m 0 min 0,0 UV-I 5 W/m 30,9 km/h (5 Bft)
31.01.2013 15:58 7,8 C 5,7 C 92 % 15 lf 1009,0 hPa 0,0 l/m 0 min 0,0 UV-I 5 W/m 12,9 km/h (3 Bft)
31.01.2013 16:00 7,8 C 5,7 C 93 % 15 lf 1009,0 hPa 0,2 l/m 0 min 0,0 UV-I 7 W/m 12,9 km/h (3 Bft)
31.01.2013 16:02 7,7 C 5,7 C 93 % 15 lf 1009,0 hPa 0,2 l/m 0 min 0,0 UV-I 18 W/m 20,6 km/h (4 Bft)
31.01.2013 16:04 7,7 C 5,7 C 93 % 15 lf 1008,9 hPa 0,0 l/m 0 min 0,0 UV-I 14 W/m 7,7 km/h (2 Bft)
31.01.2013 16:06 7,6 C 5,7 C 93 % 15 lf 1008,9 hPa 0,0 l/m 0 min 0,0 UV-I 16 W/m 28,3 km/h (4 Bft)
31.01.2013 16:08 7,6 C 5,7 C 93 % 15 lf 1009,0 hPa 0,0 l/m 0 min 0,0 UV-I 18 W/m 15,4 km/h (3 Bft)
31.01.2013 16:10 7,5 C 5,7 C 94 % 15 lf 1008,9 hPa 0,0 l/m 0 min 0,0 UV-I 39 W/m 18,0 km/h (3 Bft)
31.01.2013 16:12 7,5 C 5,7 C 94 % 15 lf 1008,8 hPa 0,0 l/m 0 min 0,0 UV-I 40 W/m 18,0 km/h (3 Bft)
31.01.2013 16:14 7,4 C 5,7 C 94 % 15 lf 1008,8 hPa 0,0 l/m 0 min 0,0 UV-I 21 W/m 25,7 km/h (4 Bft)
31.01.2013 16:16 7,4 C 5,7 C 94 % 15 lf 1008,9 hPa 0,0 l/m 0 min 0,0 UV-I 16 W/m 25,7 km/h (4 Bft)
31.01.2013 16:18 7,4 C 5,7 C 94 % 15 lf 1008,9 hPa 0,0 l/m 0 min 0,0 UV-I 14 W/m 28,3 km/h (4 Bft)
31.01.2013 16:20 7,4 C 5,7 C 93 % 15 lf 1008,9 hPa 0,0 l/m 0 min 0,0 UV-I 12 W/m 15,4 km/h (3 Bft)
31.01.2013 16:22 7,4 C 5,1 C 93 % 15 lf 1008,8 hPa 0,0 l/m 0 min 0,0 UV-I 14 W/m 15,4 km/h (3 Bft)
31.01.2013 16:24 7,4 C 5,1 C 93 % 15 lf 1008,7 hPa 0,0 l/m 0 min 0,0 UV-I 12 W/m 15,4 km/h (3 Bft)
31.01.2013 16:26 7,4 C 5,1 C 93 % 15 lf 1008,7 hPa 0,0 l/m 0 min 0,0 UV-I 12 W/m 15,4 km/h (3 Bft)
31.01.2013 16:28 7,4 C 5,7 C 93 % 15 lf 1008,7 hPa 0,0 l/m 0 min 0,0 UV-I 12 W/m 18,0 km/h (3 Bft)
31.01.2013 16:30 7,4 C 5,7 C 93 % 15 lf 1008,8 hPa 0,0 l/m 0 min 0,0 UV-I 12 W/m 23,2 km/h (4 Bft)
31.01.2013 16:32 7,5 C 5,7 C 93 % 15 lf 1008,8 hPa 0,0 l/m 0 min 0,0 UV-I 12 W/m 25,7 km/h (4 Bft)
31.01.2013 16:34 7,5 C 5,7 C 94 % 15 lf 1008,7 hPa 0,0 l/m 0 min 0,0 UV-I 14 W/m 23,2 km/h (4 Bft)
31.01.2013 16:36 7,6 C 5,7 C 94 % 15 lf 1008,7 hPa 0,0 l/m 0 min 0,0 UV-I 14 W/m 25,7 km/h (4 Bft)
31.01.2013 16:38 7,6 C 5,7 C 94 % 15 lf 1008,7 hPa 0,0 l/m 0 min 0,0 UV-I 12 W/m 18,0 km/h (3 Bft)
31.01.2013 16:40 7,6 C 5,7 C 94 % 14 lf 1008,9 hPa 0,0 l/m 0 min 0,0 UV-I 12 W/m 23,2 km/h (4 Bft)
31.01.2013 16:42 7,6 C 5,7 C 94 % 14 lf 1008,7 hPa 0,0 l/m 0 min 0,0 UV-I 11 W/m 18,0 km/h (3 Bft)
31.01.2013 16:44 7,6 C 5,7 C 94 % 14 lf 1008,7 hPa 0,0 l/m 0 min 0,0 UV-I 11 W/m 12,9 km/h (3 Bft)
31.01.2013 16:46 7,7 C 5,7 C 93 % 14 lf 1008,7 hPa 0,0 l/m 0 min 0,0 UV-I 9 W/m 15,4 km/h (3 Bft)
31.01.2013 16:48 7,7 C 5,7 C 93 % 14 lf 1008,7 hPa 0,0 l/m 0 min 0,0 UV-I 9 W/m 20,6 km/h (4 Bft)
31.01.2013 16:50 7,7 C 5,7 C 93 % 13 lf 1008,7 hPa 0,0 l/m 0 min 0,0 UV-I 9 W/m 30,9 km/h (5 Bft)
31.01.2013 16:52 7,7 C 5,7 C 93 % 13 lf 1008,7 hPa 0,0 l/m 0 min 0,0 UV-I 9 W/m 30,9 km/h (5 Bft)
31.01.2013 16:54 7,7 C 5,7 C 93 % 13 lf 1008,5 hPa 0,0 l/m 0 min 0,0 UV-I 7 W/m 28,3 km/h (4 Bft)
31.01.2013 16:56 7,7 C 5,7 C 93 % 12 lf 1008,5 hPa 0,0 l/m 0 min 0,0 UV-I 7 W/m 20,6 km/h (4 Bft)
31.01.2013 16:58 7,7 C 5,7 C 93 % 12 lf 1008,5 hPa 0,0 l/m 0 min 0,0 UV-I 5 W/m 15,4 km/h (3 Bft)
31.01.2013 17:00 7,7 C 5,7 C 92 % 11 lf 1008,6 hPa 0,0 l/m 0 min 0,0 UV-I 5 W/m 23,2 km/h (4 Bft)
31.01.2013 17:02 7,7 C 5,1 C 92 % 9 lf 1008,9 hPa 0,0 l/m 0 min 0,0 UV-I 5 W/m 12,9 km/h (3 Bft)
31.01.2013 17:04 7,7 C 5,1 C 92 % 9 lf 1008,8 hPa 0,0 l/m 0 min 0,0 UV-I 5 W/m 15,4 km/h (3 Bft)
31.01.2013 17:06 7,7 C 5,1 C 92 % 7 lf 1008,9 hPa 0,0 l/m 0 min 0,0 UV-I 5 W/m 25,7 km/h (4 Bft)
31.01.2013 17:08 7,6 C 5,1 C 92 % 7 lf 1009,0 hPa 0,0 l/m 0 min 0,0 UV-I 5 W/m 7,7 km/h (2 Bft)
31.01.2013 17:10 7,6 C 5,1 C 92 % 6 lf 1009,0 hPa 0,0 l/m 0 min 0,0 UV-I 5 W/m 7,7 km/h (2 Bft)
31.01.2013 17:12 7,6 C 5,1 C 91 % 5 lf 1008,9 hPa 0,0 l/m 0 min 0,0 UV-I 5 W/m 15,4 km/h (3 Bft)
31.01.2013 17:14 7,6 C 5,1 C 91 % 4 lf 1009,0 hPa 0,0 l/m 0 min 0,0 UV-I 0 W/m 23,2 km/h (4 Bft)
31.01.2013 17:16 7,6 C 5,1 C 91 % 4 lf 1009,0 hPa 0,0 l/m 0 min 0,0 UV-I 0 W/m 20,6 km/h (4 Bft)
31.01.2013 17:18 7,6 C 5,1 C 91 % 4 lf 1009,0 hPa 0,0 l/m 0 min 0,0 UV-I 0 W/m 18,0 km/h (3 Bft)
31.01.2013 17:20 7,6 C 5,1 C 91 % 3 lf 1009,0 hPa 0,0 l/m 0 min 0,0 UV-I 0 W/m 18,0 km/h (3 Bft)
31.01.2013 17:22 7,6 C 5,1 C 91 % 3 lf 1009,2 hPa 0,0 l/m 0 min 0,0 UV-I 0 W/m 20,6 km/h (4 Bft)
31.01.2013 17:24 7,6 C 5,1 C 91 % 3 lf 1009,2 hPa 0,0 l/m 0 min 0,0 UV-I 0 W/m 12,9 km/h (3 Bft)
31.01.2013 17:26 7,6 C 5,1 C 91 % 3 lf 1009,2 hPa 0,0 l/m 0 min 0,0 UV-I 0 W/m 12,9 km/h (3 Bft)
31.01.2013 17:28 7,6 C 5,1 C 91 % 3 lf 1009,3 hPa 0,0 l/m 0 min 0,0 UV-I 0 W/m 7,7 km/h (2 Bft)
31.01.2013 17:30 7,6 C 5,1 C 91 % 3 lf 1009,3 hPa 0,0 l/m 0 min 0,0 UV-I 0 W/m 18,0 km/h (3 Bft)
31.01.2013 17:32 7,6 C 5,1 C 91 % 3 lf 1009,4 hPa 0,0 l/m 0 min 0,0 UV-I 0 W/m 18,0 km/h (3 Bft)
31.01.2013 17:34 7,6 C 5,1 C 91 % 2 lf 1009,4 hPa 0,0 l/m 0 min 0,0 UV-I 0 W/m 25,7 km/h (4 Bft)
31.01.2013 17:36 7,7 C 5,1 C 91 % 2 lf 1009,5 hPa 0,0 l/m 0 min 0,0 UV-I 0 W/m 15,4 km/h (3 Bft)
31.01.2013 17:38 7,7 C 5,7 C 90 % 2 lf 1009,6 hPa 0,0 l/m 0 min 0,0 UV-I 0 W/m 12,9 km/h (3 Bft)
31.01.2013 17:40 7,7 C 5,7 C 90 % 2 lf 1009,6 hPa 0,0 l/m 0 min 0,0 UV-I 0 W/m 23,2 km/h (4 Bft)
31.01.2013 17:42 7,7 C 5,1 C 90 % 2 lf 1009,7 hPa 0,0 l/m 0 min 0,0 UV-I 0 W/m 23,2 km/h (4 Bft)
31.01.2013 17:44 7,8 C 5,1 C 90 % 2 lf 1009,6 hPa 0,0 l/m 0 min 0,0 UV-I 0 W/m 18,0 km/h (3 Bft)
31.01.2013 17:46 7,8 C 5,1 C 90 % 2 lf 1009,6 hPa 0,0 l/m 0 min 0,0 UV-I 0 W/m 10,3 km/h (2 Bft)
31.01.2013 17:48 7,8 C 5,1 C 90 % 2 lf 1009,7 hPa 0,0 l/m 0 min 0,0 UV-I 0 W/m 20,6 km/h (4 Bft)
31.01.2013 17:50 7,8 C 5,1 C 90 % 1 lf 1009,7 hPa 0,0 l/m 0 min 0,0 UV-I 0 W/m 33,5 km/h (5 Bft)
31.01.2013 17:52 7,8 C 5,1 C 90 % 1 lf 1009,8 hPa 0,0 l/m 0 min 0,0 UV-I 0 W/m 15,4 km/h (3 Bft)
31.01.2013 17:54 7,8 C 5,1 C 89 % 1 lf 1009,9 hPa 0,0 l/m 0 min 0,0 UV-I 0 W/m 12,9 km/h (3 Bft)
31.01.2013 17:56 7,8 C 5,1 C 90 % 1 lf 1009,9 hPa 0,0 l/m 0 min 0,0 UV-I 0 W/m 18,0 km/h (3 Bft)
31.01.2013 17:58 7,8 C 5,1 C 90 % 1 lf 1009,9 hPa 0,0 l/m 0 min 0,0 UV-I 0 W/m 12,9 km/h (3 Bft)
31.01.2013 18:00 7,8 C 5,1 C 90 % 0 lf 1009,8 hPa 0,0 l/m 0 min 0,0 UV-I 0 W/m 20,6 km/h (4 Bft)
31.01.2013 18:02 7,8 C 5,1 C 90 % 0 lf 1009,9 hPa 0,0 l/m 0 min 0,0 UV-I 0 W/m 12,9 km/h (3 Bft)
31.01.2013 18:06 7,7 C 5,1 C 90 % 0 lf 1009,9 hPa 0,0 l/m 0 min 0,0 UV-I 0 W/m 15,4 km/h (3 Bft)
31.01.2013 18:08 7,7 C 5,1 C 90 % 0 lf 1010,0 hPa 0,0 l/m 0 min 0,0 UV-I 0 W/m 10,3 km/h (2 Bft)
31.01.2013 18:10 7,7 C 5,1 C 89 % 0 lf 1009,9 hPa 0,0 l/m 0 min 0,0 UV-I 0 W/m 15,4 km/h (3 Bft)
31.01.2013 18:12 7,7 C 5,1 C 89 % 0 lf 1010,0 hPa 0,0 l/m 0 min 0,0 UV-I 0 W/m 23,2 km/h (4 Bft)
31.01.2013 18:14 7,7 C 5,1 C 89 % 0 lf 1010,0 hPa 0,0 l/m 0 min 0,0 UV-I 0 W/m 23,2 km/h (4 Bft)
31.01.2013 18:16 7,7 C 5,1 C 89 % 0 lf 1009,9 hPa 0,0 l/m 0 min 0,0 UV-I 0 W/m 12,9 km/h (3 Bft)
31.01.2013 18:18 7,7 C 5,1 C 89 % 0 lf 1009,9 hPa 0,0 l/m 0 min 0,0 UV-I 0 W/m 5,1 km/h (1 Bft)
31.01.2013 18:20 7,7 C 5,1 C 89 % 0 lf 1009,9 hPa 0,0 l/m 0 min 0,0 UV-I 0 W/m 7,7 km/h (2 Bft)
31.01.2013 18:22 7,7 C 5,1 C 89 % 0 lf 1010,0 hPa 0,0 l/m 0 min 0,0 UV-I 0 W/m 20,6 km/h (4 Bft)
31.01.2013 18:24 7,7 C 5,1 C 88 % 0 lf 1010,1 hPa 0,0 l/m 0 min 0,0 UV-I 0 W/m 12,9 km/h (3 Bft)
31.01.2013 18:26 7,7 C 5,1 C 88 % 0 lf 1010,1 hPa 0,0 l/m 0 min 0,0 UV-I 0 W/m 20,6 km/h (4 Bft)
31.01.2013 18:28 7,7 C 5,1 C 88 % 0 lf 1010,0 hPa 0,0 l/m 0 min 0,0 UV-I 0 W/m 18,0 km/h (3 Bft)
31.01.2013 18:30 7,7 C 5,1 C 87 % 0 lf 1010,0 hPa 0,0 l/m 0 min 0,0 UV-I 0 W/m 23,2 km/h (4 Bft)
31.01.2013 18:32 7,7 C 5,1 C 87 % 0 lf 1009,9 hPa 0,0 l/m 0 min 0,0 UV-I 0 W/m 12,9 km/h (3 Bft)
31.01.2013 18:34 7,7 C 5,7 C 87 % 0 lf 1010,0 hPa 0,0 l/m 0 min 0,0 UV-I 0 W/m 12,9 km/h (3 Bft)
31.01.2013 18:36 7,7 C 5,7 C 86 % 0 lf 1010,1 hPa 0,0 l/m 0 min 0,0 UV-I 0 W/m 15,4 km/h (3 Bft)
31.01.2013 18:38 7,8 C 5,7 C 86 % 0 lf 1010,2 hPa 0,0 l/m 0 min 0,0 UV-I 0 W/m 15,4 km/h (3 Bft)
31.01.2013 18:40 7,8 C 5,7 C 86 % 0 lf 1010,1 hPa 0,0 l/m 0 min 0,0 UV-I 0 W/m 5,1 km/h (1 Bft)
31.01.2013 18:42 7,8 C 5,7 C 86 % 0 lf 1010,2 hPa 0,0 l/m 0 min 0,0 UV-I 0 W/m 5,1 km/h (1 Bft)
31.01.2013 18:44 7,8 C 5,7 C 86 % 0 lf 1010,4 hPa 0,0 l/m 0 min 0,0 UV-I 0 W/m 7,7 km/h (2 Bft)
31.01.2013 18:46 7,8 C 5,7 C 86 % 0 lf 1010,4 hPa 0,0 l/m 0 min 0,0 UV-I 0 W/m 10,3 km/h (2 Bft)
31.01.2013 18:48 7,8 C 5,7 C 85 % 0 lf 1010,4 hPa 0,0 l/m 0 min 0,0 UV-I 0 W/m 20,6 km/h (4 Bft)
31.01.2013 18:50 7,8 C 5,7 C 85 % 0 lf 1010,4 hPa 0,0 l/m 0 min 0,0 UV-I 0 W/m 5,1 km/h (1 Bft)
31.01.2013 18:52 7,8 C 5,7 C 85 % 0 lf 1010,5 hPa 0,0 l/m 0 min 0,0 UV-I 0 W/m 12,9 km/h (3 Bft)
31.01.2013 18:54 7,8 C 6,2 C 85 % 0 lf 1010,5 hPa 0,0 l/m 0 min 0,0 UV-I 0 W/m 10,3 km/h (2 Bft)
31.01.2013 18:56 7,8 C 5,7 C 85 % 0 lf 1010,6 hPa 0,0 l/m 0 min 0,0 UV-I 0 W/m 2,6 km/h (1 Bft)
31.01.2013 18:58 7,8 C 5,7 C 85 % 0 lf 1010,6 hPa 0,0 l/m 0 min 0,0 UV-I 0 W/m 0,0 km/h (0 Bft)
31.01.2013 19:00 7,8 C 5,7 C 85 % 0 lf 1010,6 hPa 0,0 l/m 0 min 0,0 UV-I 0 W/m 0,0 km/h (0 Bft)
31.01.2013 19:02 7,8 C 5,7 C 85 % 0 lf 1010,8 hPa 0,0 l/m 0 min 0,0 UV-I 0 W/m 2,6 km/h (1 Bft)
31.01.2013 19:04 7,8 C 5,7 C 85 % 0 lf 1010,8 hPa 0,0 l/m 0 min 0,0 UV-I 0 W/m 7,7 km/h (2 Bft)
31.01.2013 19:06 7,8 C 5,7 C 85 % 0 lf 1010,9 hPa 0,0 l/m 0 min 0,0 UV-I 0 W/m 5,1 km/h (1 Bft)
31.01.2013 19:08 7,8 C 5,7 C 85 % 0 lf 1010,8 hPa 0,0 l/m 0 min 0,0 UV-I 0 W/m 5,1 km/h (1 Bft)
31.01.2013 19:10 7,8 C 5,7 C 85 % 0 lf 1010,8 hPa 0,0 l/m 0 min 0,0 UV-I 0 W/m 2,6 km/h (1 Bft)
31.01.2013 19:12 7,8 C 5,7 C 86 % 0 lf 1010,9 hPa 0,0 l/m 0 min 0,0 UV-I 0 W/m 10,3 km/h (2 Bft)
31.01.2013 19:14 7,7 C 6,2 C 86 % 0 lf 1010,9 hPa 0,0 l/m 0 min 0,0 UV-I 0 W/m 2,6 km/h (1 Bft)
31.01.2013 19:16 7,7 C 5,7 C 86 % 0 lf 1010,8 hPa 0,0 l/m 0 min 0,0 UV-I 0 W/m 0,0 km/h (0 Bft)
31.01.2013 19:18 7,7 C 5,7 C 86 % 0 lf 1010,9 hPa 0,0 l/m 0 min 0,0 UV-I 0 W/m 5,1 km/h (1 Bft)
31.01.2013 19:20 7,7 C 5,7 C 86 % 0 lf 1011,0 hPa 0,0 l/m 0 min 0,0 UV-I 0 W/m 2,6 km/h (1 Bft)
31.01.2013 19:22 7,7 C 5,7 C 86 % 0 lf 1010,9 hPa 0,0 l/m 0 min 0,0 UV-I 0 W/m 10,3 km/h (2 Bft)
31.01.2013 19:24 7,7 C 5,7 C 85 % 0 lf 1011,0 hPa 0,0 l/m 0 min 0,0 UV-I 0 W/m 7,7 km/h (2 Bft)
31.01.2013 19:26 7,7 C 5,7 C 85 % 0 lf 1010,9 hPa 0,0 l/m 0 min 0,0 UV-I 0 W/m 12,9 km/h (3 Bft)
31.01.2013 19:28 7,7 C 5,7 C 85 % 0 lf 1010,9 hPa 0,0 l/m 0 min 0,0 UV-I 0 W/m 10,3 km/h (2 Bft)
31.01.2013 19:30 7,7 C 6,2 C 85 % 0 lf 1011,0 hPa 0,0 l/m 0 min 0,0 UV-I 0 W/m 7,7 km/h (2 Bft)
31.01.2013 19:32 7,7 C 6,2 C 85 % 0 lf 1011,0 hPa 0,0 l/m 0 min 0,0 UV-I 0 W/m 15,4 km/h (3 Bft)
31.01.2013 19:34 7,7 C 6,2 C 84 % 0 lf 1011,1 hPa 0,0 l/m 0 min 0,0 UV-I 0 W/m 23,2 km/h (4 Bft)
31.01.2013 19:36 7,8 C 6,2 C 83 % 0 lf 1011,0 hPa 0,0 l/m 0 min 0,0 UV-I 0 W/m 20,6 km/h (4 Bft)
31.01.2013 19:38 7,8 C 6,2 C 82 % 0 lf 1011,0 hPa 0,0 l/m 0 min 0,0 UV-I 0 W/m 28,3 km/h (4 Bft)
31.01.2013 19:40 7,9 C 6,2 C 82 % 0 lf 1011,0 hPa 0,0 l/m 0 min 0,0 UV-I 0 W/m 28,3 km/h (4 Bft)
31.01.2013 19:42 7,9 C 6,2 C 81 % 0 lf 1011,0 hPa 0,0 l/m 0 min 0,0 UV-I 0 W/m 25,7 km/h (4 Bft)
31.01.2013 19:44 8,0 C 6,2 C 81 % 0 lf 1011,1 hPa 0,0 l/m 0 min 0,0 UV-I 0 W/m 10,3 km/h (2 Bft)
31.01.2013 19:46 8,0 C 6,8 C 80 % 0 lf 1011,0 hPa 0,0 l/m 0 min 0,0 UV-I 0 W/m 30,9 km/h (5 Bft)
31.01.2013 19:48 8,1 C 6,2 C 80 % 0 lf 1011,0 hPa 0,0 l/m 0 min 0,0 UV-I 0 W/m 15,4 km/h (3 Bft)
31.01.2013 19:50 8,1 C 6,8 C 80 % 0 lf 1011,0 hPa 0,0 l/m 0 min 0,0 UV-I 0 W/m 15,4 km/h (3 Bft)
31.01.2013 19:52 8,1 C 6,8 C 80 % 0 lf 1011,0 hPa 0,0 l/m 0 min 0,0 UV-I 0 W/m 12,9 km/h (3 Bft)
31.01.2013 19:54 8,1 C 6,8 C 80 % 0 lf 1011,0 hPa 0,0 l/m 0 min 0,0 UV-I 0 W/m 7,7 km/h (2 Bft)
31.01.2013 19:56 8,2 C 6,8 C 80 % 0 lf 1010,9 hPa 0,0 l/m 0 min 0,0 UV-I 0 W/m 12,9 km/h (3 Bft)
31.01.2013 19:58 8,2 C 6,8 C 80 % 0 lf 1011,1 hPa 0,0 l/m 0 min 0,0 UV-I 0 W/m 15,4 km/h (3 Bft)
31.01.2013 20:00 8,2 C 6,8 C 80 % 0 lf 1011,1 hPa 0,0 l/m 0 min 0,0 UV-I 0 W/m 12,9 km/h (3 Bft)
31.01.2013 20:02 8,2 C 6,2 C 80 % 0 lf 1011,1 hPa 0,0 l/m 0 min 0,0 UV-I 0 W/m 7,7 km/h (2 Bft)
31.01.2013 20:04 8,2 C 6,2 C 80 % 0 lf 1011,2 hPa 0,0 l/m 0 min 0,0 UV-I 0 W/m 5,1 km/h (1 Bft)
31.01.2013 20:06 8,2 C 6,2 C 80 % 0 lf 1011,2 hPa 0,0 l/m 0 min 0,0 UV-I 0 W/m 0,0 km/h (0 Bft)
31.01.2013 20:08 8,1 C 6,2 C 81 % 0 lf 1011,2 hPa 0,0 l/m 0 min 0,0 UV-I 0 W/m 10,3 km/h (2 Bft)
31.01.2013 20:10 8,1 C 6,2 C 81 % 0 lf 1011,2 hPa 0,0 l/m 0 min 0,0 UV-I 0 W/m 5,1 km/h (1 Bft)
31.01.2013 20:12 8,1 C 6,2 C 81 % 0 lf 1011,2 hPa 0,0 l/m 0 min 0,0 UV-I 0 W/m 7,7 km/h (2 Bft)
31.01.2013 20:14 8,1 C 6,2 C 81 % 0 lf 1011,3 hPa 0,0 l/m 0 min 0,0 UV-I 0 W/m 5,1 km/h (1 Bft)
31.01.2013 20:16 8,1 C 6,2 C 81 % 0 lf 1011,3 hPa 0,0 l/m 0 min 0,0 UV-I 0 W/m 12,9 km/h (3 Bft)
31.01.2013 20:18 8,1 C 6,2 C 82 % 0 lf 1011,3 hPa 0,0 l/m 0 min 0,0 UV-I 0 W/m 10,3 km/h (2 Bft)
31.01.2013 20:20 8,1 C 6,2 C 82 % 0 lf 1011,3 hPa 0,0 l/m 0 min 0,0 UV-I 0 W/m 7,7 km/h (2 Bft)
31.01.2013 20:22 8,1 C 6,2 C 83 % 0 lf 1011,3 hPa 0,0 l/m 0 min 0,0 UV-I 0 W/m 15,4 km/h (3 Bft)
31.01.2013 20:24 8,1 C 6,2 C 83 % 0 lf 1011,4 hPa 0,0 l/m 0 min 0,0 UV-I 0 W/m 20,6 km/h (4 Bft)
31.01.2013 20:26 8,1 C 6,2 C 83 % 0 lf 1011,4 hPa 0,0 l/m 0 min 0,0 UV-I 0 W/m 23,2 km/h (4 Bft)
31.01.2013 20:28 8,1 C 6,8 C 83 % 0 lf 1011,4 hPa 0,0 l/m 0 min 0,0 UV-I 0 W/m 18,0 km/h (3 Bft)
31.01.2013 20:30 8,1 C 6,8 C 83 % 0 lf 1011,5 hPa 0,0 l/m 0 min 0,0 UV-I 0 W/m 12,9 km/h (3 Bft)
31.01.2013 20:32 8,1 C 6,8 C 83 % 0 lf 1011,4 hPa 0,0 l/m 0 min 0,0 UV-I 0 W/m 15,4 km/h (3 Bft)
31.01.2013 20:34 8,1 C 6,8 C 83 % 0 lf 1011,5 hPa 0,0 l/m 0 min 0,0 UV-I 0 W/m 12,9 km/h (3 Bft)
31.01.2013 20:36 8,1 C 6,8 C 83 % 0 lf 1011,4 hPa 0,0 l/m 0 min 0,0 UV-I 0 W/m 12,9 km/h (3 Bft)
31.01.2013 20:38 8,1 C 6,8 C 83 % 0 lf 1011,4 hPa 0,0 l/m 0 min 0,0 UV-I 0 W/m 18,0 km/h (3 Bft)
31.01.2013 20:40 8,1 C 6,8 C 83 % 0 lf 1011,3 hPa 0,0 l/m 0 min 0,0 UV-I 0 W/m 20,6 km/h (4 Bft)
31.01.2013 20:42 8,1 C 6,8 C 83 % 0 lf 1011,4 hPa 0,0 l/m 0 min 0,0 UV-I 0 W/m 28,3 km/h (4 Bft)
31.01.2013 20:44 8,2 C 6,8 C 83 % 0 lf 1011,5 hPa 0,0 l/m 0 min 0,0 UV-I 0 W/m 20,6 km/h (4 Bft)
31.01.2013 20:46 8,2 C 6,8 C 82 % 0 lf 1011,5 hPa 0,0 l/m 0 min 0,0 UV-I 0 W/m 25,7 km/h (4 Bft)
31.01.2013 20:48 8,2 C 6,8 C 82 % 0 lf 1011,5 hPa 0,0 l/m 0 min 0,0 UV-I 0 W/m 15,4 km/h (3 Bft)
31.01.2013 20:50 8,2 C 6,8 C 83 % 0 lf 1011,5 hPa 0,0 l/m 0 min 0,0 UV-I 0 W/m 12,9 km/h (3 Bft)
31.01.2013 20:52 8,2 C 6,8 C 83 % 0 lf 1011,5 hPa 0,0 l/m 0 min 0,0 UV-I 0 W/m 20,6 km/h (4 Bft)
31.01.2013 20:54 8,2 C 6,8 C 83 % 0 lf 1011,6 hPa 0,0 l/m 0 min 0,0 UV-I 0 W/m 15,4 km/h (3 Bft)
31.01.2013 20:56 8,2 C 6,8 C 83 % 0 lf 1011,6 hPa 0,0 l/m 0 min 0,0 UV-I 0 W/m 18,0 km/h (3 Bft)
31.01.2013 20:58 8,2 C 6,8 C 83 % 0 lf 1011,7 hPa 0,0 l/m 0 min 0,0 UV-I 0 W/m 23,2 km/h (4 Bft)
31.01.2013 21:00 8,2 C 6,8 C 83 % 0 lf 1011,8 hPa 0,0 l/m 0 min 0,0 UV-I 0 W/m 15,4 km/h (3 Bft)
31.01.2013 21:02 8,2 C 6,8 C 83 % 0 lf 1011,7 hPa 0,0 l/m 0 min 0,0 UV-I 0 W/m 18,0 km/h (3 Bft)
31.01.2013 21:04 8,2 C 6,8 C 83 % 0 lf 1011,8 hPa 0,0 l/m 0 min 0,0 UV-I 0 W/m 20,6 km/h (4 Bft)
31.01.2013 21:06 8,2 C 6,8 C 83 % 0 lf 1011,8 hPa 0,0 l/m 0 min 0,0 UV-I 0 W/m 20,6 km/h (4 Bft)
31.01.2013 21:08 8,1 C 6,2 C 83 % 0 lf 1011,9 hPa 0,0 l/m 0 min 0,0 UV-I 0 W/m 10,3 km/h (2 Bft)
31.01.2013 21:10 8,1 C 6,8 C 83 % 0 lf 1011,6 hPa 0,0 l/m 0 min 0,0 UV-I 0 W/m 28,3 km/h (4 Bft)
31.01.2013 21:12 8,1 C 6,8 C 83 % 0 lf 1011,7 hPa 0,0 l/m 0 min 0,0 UV-I 0 W/m 18,0 km/h (3 Bft)
31.01.2013 21:14 8,1 C 6,8 C 83 % 0 lf 1011,6 hPa 0,0 l/m 0 min 0,0 UV-I 0 W/m 25,7 km/h (4 Bft)
31.01.2013 21:16 8,1 C 6,8 C 83 % 0 lf 1011,6 hPa 0,0 l/m 0 min 0,0 UV-I 0 W/m 28,3 km/h (4 Bft)
31.01.2013 21:18 8,1 C 6,8 C 83 % 0 lf 1011,7 hPa 0,0 l/m 0 min 0,0 UV-I 0 W/m 28,3 km/h (4 Bft)
31.01.2013 21:20 8,1 C 6,2 C 83 % 0 lf 1011,7 hPa 0,0 l/m 0 min 0,0 UV-I 0 W/m 15,4 km/h (3 Bft)
31.01.2013 21:22 8,1 C 6,2 C 83 % 0 lf 1011,7 hPa 0,0 l/m 0 min 0,0 UV-I 0 W/m 10,3 km/h (2 Bft)
31.01.2013 21:24 8,1 C 6,2 C 83 % 0 lf 1011,6 hPa 0,0 l/m 0 min 0,0 UV-I 0 W/m 12,9 km/h (3 Bft)
31.01.2013 21:26 8,0 C 6,2 C 83 % 0 lf 1011,6 hPa 0,0 l/m 0 min 0,0 UV-I 0 W/m 7,7 km/h (2 Bft)
31.01.2013 21:28 7,9 C 6,2 C 83 % 0 lf 1011,6 hPa 0,0 l/m 0 min 0,0 UV-I 0 W/m 12,9 km/h (3 Bft)
31.01.2013 21:30 7,9 C 6,2 C 84 % 0 lf 1011,5 hPa 0,0 l/m 0 min 0,0 UV-I 0 W/m 18,0 km/h (3 Bft)
31.01.2013 21:32 7,9 C 6,2 C 84 % 0 lf 1011,5 hPa 0,0 l/m 0 min 0,0 UV-I 0 W/m 15,4 km/h (3 Bft)
31.01.2013 21:34 7,9 C 6,2 C 84 % 0 lf 1011,5 hPa 0,0 l/m 0 min 0,0 UV-I 0 W/m 18,0 km/h (3 Bft)
31.01.2013 21:36 7,8 C 6,2 C 84 % 0 lf 1011,5 hPa 0,0 l/m 0 min 0,0 UV-I 0 W/m 15,4 km/h (3 Bft)
31.01.2013 21:38 7,8 C 6,2 C 84 % 0 lf 1011,6 hPa 0,0 l/m 0 min 0,0 UV-I 0 W/m 25,7 km/h (4 Bft)
31.01.2013 21:40 7,8 C 6,2 C 84 % 0 lf 1011,6 hPa 0,0 l/m 0 min 0,0 UV-I 0 W/m 20,6 km/h (4 Bft)
31.01.2013 21:42 7,8 C 6,2 C 84 % 0 lf 1011,5 hPa 0,0 l/m 0 min 0,0 UV-I 0 W/m 15,4 km/h (3 Bft)
31.01.2013 21:44 7,8 C 6,2 C 84 % 0 lf 1011,7 hPa 0,0 l/m 0 min 0,0 UV-I 0 W/m 18,0 km/h (3 Bft)
31.01.2013 21:46 7,8 C 6,2 C 84 % 0 lf 1011,5 hPa 0,0 l/m 0 min 0,0 UV-I 0 W/m 18,0 km/h (3 Bft)
31.01.2013 21:48 7,8 C 6,2 C 84 % 0 lf 1011,5 hPa 0,0 l/m 0 min 0,0 UV-I 0 W/m 18,0 km/h (3 Bft)
31.01.2013 21:50 7,7 C 6,2 C 84 % 0 lf 1011,6 hPa 0,0 l/m 0 min 0,0 UV-I 0 W/m 18,0 km/h (3 Bft)
31.01.2013 21:52 7,7 C 6,2 C 84 % 0 lf 1011,5 hPa 0,0 l/m 0 min 0,0 UV-I 0 W/m 23,2 km/h (4 Bft)
31.01.2013 21:54 7,7 C 6,2 C 84 % 0 lf 1011,5 hPa 0,0 l/m 0 min 0,0 UV-I 0 W/m 23,2 km/h (4 Bft)
31.01.2013 21:56 7,7 C 6,2 C 84 % 0 lf 1011,6 hPa 0,0 l/m 0 min 0,0 UV-I 0 W/m 18,0 km/h (3 Bft)
31.01.2013 21:58 7,7 C 6,2 C 84 % 0 lf 1011,6 hPa 0,0 l/m 0 min 0,0 UV-I 0 W/m 23,2 km/h (4 Bft)
31.01.2013 22:00 7,7 C 6,2 C 84 % 0 lf 1011,7 hPa 0,0 l/m 0 min 0,0 UV-I 0 W/m 15,4 km/h (3 Bft)
31.01.2013 22:02 7,7 C 6,2 C 84 % 0 lf 1011,9 hPa 0,0 l/m 0 min 0,0 UV-I 0 W/m 23,2 km/h (4 Bft)
31.01.2013 22:06 7,7 C 6,2 C 84 % 0 lf 1011,8 hPa 0,0 l/m 0 min 0,0 UV-I 0 W/m 15,4 km/h (3 Bft)
31.01.2013 22:08 7,7 C 6,2 C 84 % 0 lf 1011,9 hPa 0,0 l/m 0 min 0,0 UV-I 0 W/m 18,0 km/h (3 Bft)
31.01.2013 22:10 7,6 C 6,2 C 84 % 0 lf 1011,8 hPa 0,0 l/m 0 min 0,0 UV-I 0 W/m 15,4 km/h (3 Bft)
31.01.2013 22:12 7,6 C 6,2 C 84 % 0 lf 1011,9 hPa 0,0 l/m 0 min 0,0 UV-I 0 W/m 7,7 km/h (2 Bft)
31.01.2013 22:14 7,6 C 6,2 C 84 % 0 lf 1011,9 hPa 0,0 l/m 0 min 0,0 UV-I 0 W/m 20,6 km/h (4 Bft)
31.01.2013 22:16 7,6 C 5,7 C 84 % 0 lf 1011,8 hPa 0,0 l/m 0 min 0,0 UV-I 0 W/m 7,7 km/h (2 Bft)
31.01.2013 22:18 7,6 C 5,7 C 84 % 0 lf 1011,8 hPa 0,0 l/m 0 min 0,0 UV-I 0 W/m 12,9 km/h (3 Bft)
31.01.2013 22:20 7,6 C 6,2 C 84 % 0 lf 1011,9 hPa 0,0 l/m 0 min 0,0 UV-I 0 W/m 18,0 km/h (3 Bft)
31.01.2013 22:22 7,6 C 6,2 C 84 % 0 lf 1011,9 hPa 0,0 l/m 0 min 0,0 UV-I 0 W/m 20,6 km/h (4 Bft)
31.01.2013 22:24 7,6 C 6,2 C 84 % 0 lf 1011,8 hPa 0,0 l/m 0 min 0,0 UV-I 0 W/m 12,9 km/h (3 Bft)
31.01.2013 22:26 7,5 C 6,2 C 85 % 0 lf 1011,7 hPa 0,0 l/m 0 min 0,0 UV-I 0 W/m 28,3 km/h (4 Bft)
31.01.2013 22:28 7,5 C 6,2 C 85 % 0 lf 1011,8 hPa 0,0 l/m 0 min 0,0 UV-I 0 W/m 15,4 km/h (3 Bft)
31.01.2013 22:30 7,5 C 6,2 C 85 % 0 lf 1011,8 hPa 0,0 l/m 0 min 0,0 UV-I 0 W/m 20,6 km/h (4 Bft)
31.01.2013 22:32 7,5 C 6,2 C 85 % 0 lf 1011,7 hPa 0,0 l/m 0 min 0,0 UV-I 0 W/m 20,6 km/h (4 Bft)
31.01.2013 22:34 7,5 C 6,2 C 85 % 0 lf 1011,7 hPa 0,0 l/m 0 min 0,0 UV-I 0 W/m 18,0 km/h (3 Bft)
31.01.2013 22:36 7,6 C 6,2 C 85 % 0 lf 1011,6 hPa 0,0 l/m 0 min 0,0 UV-I 0 W/m 23,2 km/h (4 Bft)
31.01.2013 22:38 7,6 C 6,2 C 85 % 0 lf 1011,6 hPa 0,0 l/m 0 min 0,0 UV-I 0 W/m 23,2 km/h (4 Bft)
31.01.2013 22:40 7,6 C 6,2 C 84 % 0 lf 1011,7 hPa 0,0 l/m 0 min 0,0 UV-I 0 W/m 18,0 km/h (3 Bft)
31.01.2013 22:42 7,6 C 6,2 C 85 % 0 lf 1011,7 hPa 0,0 l/m 0 min 0,0 UV-I 0 W/m 25,7 km/h (4 Bft)
31.01.2013 22:44 7,6 C 6,2 C 84 % 0 lf 1011,5 hPa 0,0 l/m 0 min 0,0 UV-I 0 W/m 23,2 km/h (4 Bft)
31.01.2013 22:46 7,7 C 6,2 C 84 % 0 lf 1011,8 hPa 0,0 l/m 0 min 0,0 UV-I 0 W/m 25,7 km/h (4 Bft)
31.01.2013 22:48 7,7 C 6,2 C 84 % 0 lf 1011,6 hPa 0,0 l/m 0 min 0,0 UV-I 0 W/m 23,2 km/h (4 Bft)
31.01.2013 22:50 7,7 C 6,2 C 84 % 0 lf 1011,9 hPa 0,0 l/m 0 min 0,0 UV-I 0 W/m 20,6 km/h (4 Bft)
31.01.2013 22:52 7,7 C 6,2 C 84 % 0 lf 1011,7 hPa 0,0 l/m 0 min 0,0 UV-I 0 W/m 28,3 km/h (4 Bft)
31.01.2013 22:54 7,7 C 6,2 C 84 % 0 lf 1011,9 hPa 0,0 l/m 0 min 0,0 UV-I 0 W/m 15,4 km/h (3 Bft)
31.01.2013 22:56 7,7 C 6,2 C 84 % 0 lf 1011,9 hPa 0,0 l/m 0 min 0,0 UV-I 0 W/m 15,4 km/h (3 Bft)
31.01.2013 22:58 7,7 C 6,2 C 83 % 0 lf 1011,8 hPa 0,0 l/m 0 min 0,0 UV-I 0 W/m 36,0 km/h (5 Bft)
31.01.2013 23:00 7,7 C 6,2 C 83 % 0 lf 1011,8 hPa 0,0 l/m 0 min 0,0 UV-I 0 W/m 18,0 km/h (3 Bft)
31.01.2013 23:02 7,7 C 6,2 C 84 % 0 lf 1011,9 hPa 0,0 l/m 0 min 0,0 UV-I 0 W/m 20,6 km/h (4 Bft)
31.01.2013 23:04 7,7 C 6,2 C 83 % 0 lf 1011,8 hPa 0,0 l/m 0 min 0,0 UV-I 0 W/m 28,3 km/h (4 Bft)
31.01.2013 23:06 7,7 C 6,2 C 84 % 0 lf 1011,8 hPa 0,0 l/m 0 min 0,0 UV-I 0 W/m 20,6 km/h (4 Bft)
31.01.2013 23:08 7,7 C 6,2 C 84 % 0 lf 1011,6 hPa 0,0 l/m 0 min 0,0 UV-I 0 W/m 15,4 km/h (3 Bft)
31.01.2013 23:10 7,7 C 6,2 C 84 % 0 lf 1011,6 hPa 0,0 l/m 0 min 0,0 UV-I 0 W/m 15,4 km/h (3 Bft)
31.01.2013 23:12 7,7 C 6,2 C 84 % 0 lf 1011,7 hPa 0,0 l/m 0 min 0,0 UV-I 0 W/m 20,6 km/h (4 Bft)
31.01.2013 23:14 7,7 C 6,2 C 84 % 0 lf 1011,7 hPa 0,0 l/m 0 min 0,0 UV-I 0 W/m 20,6 km/h (4 Bft)
31.01.2013 23:16 7,7 C 6,2 C 84 % 0 lf 1011,8 hPa 0,0 l/m 0 min 0,0 UV-I 0 W/m 18,0 km/h (3 Bft)
31.01.2013 23:18 7,7 C 6,2 C 84 % 0 lf 1011,7 hPa 0,0 l/m 0 min 0,0 UV-I 0 W/m 18,0 km/h (3 Bft)
31.01.2013 23:20 7,7 C 6,2 C 84 % 0 lf 1012,0 hPa 0,0 l/m 0 min 0,0 UV-I 0 W/m 28,3 km/h (4 Bft)
31.01.2013 23:22 7,7 C 6,2 C 84 % 0 lf 1011,8 hPa 0,0 l/m 0 min 0,0 UV-I 0 W/m 18,0 km/h (3 Bft)
31.01.2013 23:24 7,7 C 6,2 C 84 % 0 lf 1011,8 hPa 0,0 l/m 0 min 0,0 UV-I 0 W/m 25,7 km/h (4 Bft)
31.01.2013 23:26 7,7 C 6,2 C 84 % 0 lf 1011,8 hPa 0,0 l/m 0 min 0,0 UV-I 0 W/m 33,5 km/h (5 Bft)
31.01.2013 23:28 7,7 C 6,2 C 84 % 0 lf 1011,8 hPa 0,0 l/m 0 min 0,0 UV-I 0 W/m 23,2 km/h (4 Bft)
31.01.2013 23:30 7,7 C 6,2 C 84 % 0 lf 1011,8 hPa 0,0 l/m 0 min 0,0 UV-I 0 W/m 15,4 km/h (3 Bft)
31.01.2013 23:32 7,7 C 6,2 C 84 % 0 lf 1011,9 hPa 0,0 l/m 0 min 0,0 UV-I 0 W/m 15,4 km/h (3 Bft)
31.01.2013 23:34 7,7 C 6,2 C 84 % 0 lf 1011,9 hPa 0,0 l/m 0 min 0,0 UV-I 0 W/m 20,6 km/h (4 Bft)
31.01.2013 23:36 7,7 C 6,2 C 84 % 0 lf 1011,9 hPa 0,0 l/m 0 min 0,0 UV-I 0 W/m 30,9 km/h (5 Bft)
31.01.2013 23:38 7,7 C 6,2 C 84 % 0 lf 1011,9 hPa 0,0 l/m 0 min 0,0 UV-I 0 W/m 25,7 km/h (4 Bft)
31.01.2013 23:40 7,7 C 6,2 C 84 % 0 lf 1011,8 hPa 0,0 l/m 0 min 0,0 UV-I 0 W/m 25,7 km/h (4 Bft)
31.01.2013 23:42 7,7 C 6,2 C 84 % 0 lf 1011,8 hPa 0,0 l/m 0 min 0,0 UV-I 0 W/m 15,4 km/h (3 Bft)
31.01.2013 23:44 7,7 C 6,2 C 84 % 0 lf 1011,9 hPa 0,0 l/m 0 min 0,0 UV-I 0 W/m 25,7 km/h (4 Bft)
31.01.2013 23:46 7,6 C 6,2 C 84 % 0 lf 1011,9 hPa 0,0 l/m 0 min 0,0 UV-I 0 W/m 25,7 km/h (4 Bft)
31.01.2013 23:48 7,6 C 6,2 C 84 % 0 lf 1011,9 hPa 0,0 l/m 0 min 0,0 UV-I 0 W/m 18,0 km/h (3 Bft)
31.01.2013 23:50 7,6 C 6,2 C 84 % 0 lf 1011,9 hPa 0,0 l/m 0 min 0,0 UV-I 0 W/m 28,3 km/h (4 Bft)
31.01.2013 23:52 7,6 C 6,2 C 84 % 0 lf 1011,9 hPa 0,0 l/m 0 min 0,0 UV-I 0 W/m 20,6 km/h (4 Bft)
31.01.2013 23:54 7,6 C 6,2 C 84 % 0 lf 1011,9 hPa 0,0 l/m 0 min 0,0 UV-I 0 W/m 18,0 km/h (3 Bft)
31.01.2013 23:56 7,6 C 6,2 C 84 % 0 lf 1011,8 hPa 0,0 l/m 0 min 0,0 UV-I 0 W/m 18,0 km/h (3 Bft)
31.01.2013 23:58 7,6 C 6,2 C 84 % 0 lf 1011,9 hPa 0,0 l/m 0 min 0,0 UV-I 0 W/m 20,6 km/h (4 Bft)
_ Min-Zeit 13:06 12:10 11:16 00:00 16:54 - - - - 18:58
Minimum _ 6,2 C 4,6 C 74 % 0 lf 1008,5 hPa - - - - 0,0 km/h (0 Bft)
_ Max-Zeit 15:28 00:06 16:10 11:56 02:50 15:54 14:00 00:00 14:00 03:58
Maximum _ 8,6 C 7,3 C 94 % 15 lf 1015,8 hPa 0,4 l/m 2 min 0,0 UV-I 411 W/m 51,5 km/h
SW (7 Bft)
Durchschnitt _ 7,6 C 6,0 C 85 % 2 lf 1012,4 hPa #3,2 l/m #18 min. 0,0 UV-I 56 W/m 22,2 km/h (4 Bft)
© 2013 W. Hausmann